Latitude: N 50° 09' 49" Longitude: W 05° 11' 53" Elevation: 168m ASL

There are 23 visitors online

Adverts

<- Previous Day | Today | Next Day ->

All Data for 22 September 2018

Time
A - D
Temp
A - D
Dew Point
A - D
Humidity
A - D
Pressure
A - D
Wind
A - D
Wind Dir Gust
A - D
Rain Rate
A - D
Rain Total
00:00 10.6 8.9 89 1020.8 1.6 SW 1.6 0.0 0.0
00:01 10.6 8.9 89 1021.1 1.6 W 1.6 0.0 0.0
00:02 10.6 8.9 89 1020.9 2.2 SW 2.2 0.0 0.0
00:03 10.7 9.0 89 1021.1 1.6 SE 2.2 0.0 0.0
00:04 10.6 8.9 89 1020.9 1.6 SW 2.2 0.0 0.0
00:05 10.6 8.9 89 1020.9 1.6 W 2.2 0.0 0.0
00:06 10.7 9.0 89 1020.9 0.0 W 2.2 0.0 0.0
00:07 10.6 8.9 89 1020.9 0.0 W 2.2 0.0 0.0
00:08 10.6 8.9 89 1020.9 0.0 W 2.2 0.0 0.0
00:09 10.7 9.0 89 1020.9 0.0 W 2.2 0.0 0.0
00:11 10.7 9.0 89 1020.9 0.0 S 2.2 0.0 0.0
00:12 10.7 9.0 89 1020.8 0.0 S 2.2 0.0 0.0
00:13 10.7 9.0 89 1020.9 0.0 S 1.6 0.0 0.0
00:14 10.7 9.0 89 1020.9 0.0 SE 1.6 0.0 0.0
00:15 10.7 9.0 89 1020.9 0.0 SE 0.0 0.0 0.0
00:16 10.7 9.0 89 1020.8 0.7 SE 0.7 0.0 0.0
00:17 10.7 9.0 89 1020.8 0.0 E 0.7 0.0 0.0
00:18 10.7 9.0 89 1020.9 2.2 SE 2.2 0.0 0.0
00:19 10.7 9.0 89 1020.7 1.6 E 2.2 0.0 0.0
00:20 10.7 9.0 89 1021.0 1.6 SE 2.2 0.0 0.0
00:21 10.7 9.0 89 1021.0 2.2 E 2.2 0.0 0.0
00:22 10.7 9.0 89 1020.9 2.2 SE 2.2 0.0 0.0
00:23 10.7 9.0 89 1020.9 2.2 SE 2.2 0.0 0.0
00:24 10.7 9.0 89 1020.9 2.2 SE 3.1 0.0 0.0
00:25 10.7 9.0 89 1020.9 2.2 SE 3.1 0.0 0.0
00:26 10.7 9.0 89 1021.0 1.6 SE 3.1 0.0 0.0
00:27 10.7 9.0 89 1020.9 2.2 SE 3.1 0.0 0.0
00:28 10.8 9.1 89 1021.1 1.6 SE 3.1 0.0 0.0
00:30 10.8 9.1 89 1021.1 0.0 E 3.1 0.0 0.0
00:31 10.7 9.0 89 1021.1 0.0 E 3.1 0.0 0.0
00:32 10.8 9.1 89 1021.2 0.0 NE 3.1 0.0 0.0
00:33 10.8 9.1 89 1021.1 1.6 S 3.1 0.0 0.0
00:34 10.7 9.0 89 1021.2 0.0 S 2.2 0.0 0.0
00:35 10.8 9.1 89 1021.1 0.0 S 2.2 0.0 0.0
00:36 10.8 9.1 89 1021.1 0.0 S 2.2 0.0 0.0
00:37 10.8 9.1 89 1021.0 0.0 S 1.6 0.0 0.0
00:38 10.8 9.1 89 1021.0 0.0 S 1.6 0.0 0.0
00:39 10.8 9.1 89 1020.9 1.6 S 1.6 0.0 0.0
00:40 10.8 9.1 89 1021.1 1.6 S 1.6 0.0 0.0
00:41 10.8 9.1 89 1021.0 1.6 S 1.6 0.0 0.0
00:42 10.8 9.1 89 1021.0 1.6 S 1.6 0.0 0.0
00:43 10.8 9.1 89 1021.0 1.6 S 1.6 0.0 0.0
00:44 10.8 9.1 89 1021.1 1.6 SE 1.6 0.0 0.0
00:45 10.8 9.1 89 1021.1 1.6 SE 1.6 0.0 0.0
00:46 10.8 9.1 89 1021.0 1.6 SE 1.6 0.0 0.0
00:47 10.8 9.1 89 1021.0 1.6 SE 1.6 0.0 0.0
00:49 10.7 9.0 89 1021.2 1.6 SE 1.6 0.0 0.0
00:50 10.8 9.1 89 1021.1 0.7 SE 1.6 0.0 0.0
00:51 10.8 9.1 89 1021.3 0.0 SE 1.6 0.0 0.0
00:52 10.8 9.1 89 1021.0 1.6 SE 1.6 0.0 0.0
00:53 10.7 9.0 89 1021.0 2.2 SE 2.2 0.0 0.0
00:54 10.7 9.0 89 1021.0 2.2 SE 2.2 0.0 0.0
00:55 10.7 9.0 89 1020.8 1.6 SE 2.2 0.0 0.0
00:56 10.7 9.0 89 1020.9 1.6 SE 2.2 0.0 0.0
00:57 10.7 9.0 89 1021.0 2.2 SE 2.2 0.0 0.0
00:58 10.7 9.0 89 1021.0 1.6 SE 2.2 0.0 0.0
00:59 10.7 9.0 89 1021.0 0.7 SE 2.2 0.0 0.0
01:00 10.7 9.0 89 1020.9 0.0 SE 2.2 0.0 0.0
01:01 10.7 9.0 89 1020.9 0.0 S 2.2 0.0 0.0
01:02 10.7 9.0 89 1020.9 0.0 E 2.2 0.0 0.0
01:03 10.8 9.1 89 1020.9 0.0 SW 2.2 0.0 0.0
01:04 10.8 9.1 89 1021.1 0.0 SE 2.2 0.0 0.0
01:05 10.8 9.1 89 1020.9 0.0 SE 2.2 0.0 0.0
01:06 10.8 9.1 89 1021.0 0.0 S 2.2 0.0 0.0
01:07 10.8 9.1 89 1021.0 0.0 S 2.2 0.0 0.0
01:08 10.8 9.1 89 1020.9 0.0 S 1.6 0.0 0.0
01:09 10.8 9.1 89 1021.0 0.0 S 0.7 0.0 0.0
01:10 10.8 9.1 89 1021.0 0.0 S 0.0 0.0 0.0
01:11 10.8 9.1 89 1021.2 0.0 S 0.0 0.0 0.0
01:12 10.8 9.1 89 1020.9 0.0 SE 0.0 0.0 0.0
01:13 10.8 9.1 89 1020.9 0.0 SE 0.0 0.0 0.0
01:14 10.8 9.1 89 1020.9 0.0 SE 0.0 0.0 0.0
01:15 10.8 9.1 89 1020.9 0.0 SE 0.0 0.0 0.0
01:17 10.8 9.1 89 1021.0 0.0 SE 0.0 0.0 0.0
01:18 10.8 9.1 89 1021.1 0.0 SE 0.0 0.0 0.0
01:19 10.8 9.1 89 1021.1 0.0 SE 0.0 0.0 0.0
01:20 10.8 9.1 89 1021.1 0.0 SE 0.0 0.0 0.0
01:21 10.8 9.1 89 1021.1 0.0 SE 0.0 0.0 0.0
01:22 10.8 9.1 89 1020.9 0.0 SE 0.0 0.0 0.0
01:23 10.8 9.1 89 1021.0 0.0 SE 0.0 0.0 0.0
01:24 10.8 9.1 89 1021.1 0.0 SE 0.0 0.0 0.0
01:25 10.8 9.1 89 1020.9 0.0 SE 0.0 0.0 0.0
01:26 10.8 9.1 89 1020.9 0.0 SE 0.0 0.0 0.0
01:27 10.8 9.1 89 1021.0 0.0 SE 0.0 0.0 0.0
01:28 10.8 9.1 89 1020.8 0.0 SE 0.0 0.0 0.0
01:29 10.8 9.2 90 1020.9 0.0 N 0.0 0.0 0.0
01:30 10.8 9.2 90 1020.9 0.0 N 0.0 0.0 0.0
01:31 10.8 9.1 89 1020.9 0.0 NW 0.0 0.0 0.0
01:32 10.8 9.2 90 1020.9 0.0 W 0.0 0.0 0.0
01:33 10.8 9.1 89 1020.9 0.0 NW 0.0 0.0 0.0
01:34 10.8 9.1 89 1020.9 0.0 NW 0.0 0.0 0.0
01:35 10.8 9.2 90 1020.9 0.0 NW 0.0 0.0 0.0
01:37 10.8 9.1 89 1020.9 0.0 NW 0.0 0.0 0.0
01:38 10.8 9.1 89 1020.9 0.0 NW 0.0 0.0 0.0
01:39 10.9 9.3 90 1020.7 0.0 NW 0.0 0.0 0.0
01:40 10.9 9.3 90 1021.0 0.0 NW 0.0 0.0 0.0
01:41 10.8 9.2 90 1020.9 0.0 NW 0.0 0.0 0.0
01:42 10.8 9.2 90 1020.9 0.0 NW 0.0 0.0 0.0
01:43 10.9 9.3 90 1021.0 0.0 NW 0.0 0.0 0.0
01:44 10.9 9.3 90 1021.0 0.0 NW 0.0 0.0 0.0
01:45 10.8 9.2 90 1021.2 0.0 NW 0.0 0.0 0.0
01:46 10.8 9.2 90 1021.0 0.0 NW 0.0 0.0 0.0
01:47 10.9 9.3 90 1021.2 0.0 NW 0.0 0.0 0.0
01:48 10.9 9.2 89 1021.1 0.0 NW 0.0 0.0 0.0
01:49 10.8 9.2 90 1020.9 0.0 NW 0.0 0.0 0.0
01:50 10.8 9.2 90 1021.0 0.0 NW 0.0 0.0 0.0
01:51 10.8 9.2 90 1021.0 0.0 NW 0.0 0.0 0.0
01:52 10.9 9.3 90 1021.0 0.0 N 0.0 0.0 0.0
01:53 10.8 9.2 90 1020.9 0.0 N 0.0 0.0 0.0
01:54 10.8 9.2 90 1020.8 0.0 N 0.0 0.0 0.0
01:56 10.8 9.2 90 1021.2 0.0 N 0.0 0.0 0.0
01:57 10.8 9.2 90 1021.1 0.0 N 0.0 0.0 0.0
01:58 10.8 9.2 90 1021.1 0.0 N 0.0 0.0 0.0
01:59 10.8 9.2 90 1021.1 0.0 N 0.0 0.0 0.0
02:00 10.8 9.2 90 1021.2 0.0 N 0.0 0.0 0.0
02:01 10.8 9.2 90 1021.2 0.0 N 0.0 0.0 0.0
02:02 10.8 9.2 90 1021.1 0.0 N 0.0 0.0 0.0
02:03 10.8 9.2 90 1021.2 0.0 N 0.0 0.0 0.0
02:04 10.8 9.2 90 1021.1 0.0 N 0.0 0.0 0.0
02:05 10.8 9.2 90 1021.2 0.0 N 0.0 0.0 0.0
02:06 10.8 9.2 90 1020.9 0.0 SE 0.0 0.0 0.0
02:07 10.8 9.2 90 1021.1 0.0 E 0.0 0.0 0.0
02:08 10.8 9.2 90 1021.3 0.0 SE 0.0 0.0 0.0
02:09 10.8 9.2 90 1021.2 0.0 SE 0.0 0.0 0.0
02:10 10.8 9.2 90 1021.3 0.0 E 0.0 0.0 0.0
02:11 10.8 9.2 90 1021.3 0.0 E 0.0 0.0 0.0
02:12 10.8 9.2 90 1021.2 0.0 ENE 0.0 0.0 0.0
02:13 10.8 9.2 90 1021.2 0.0 ENE 0.0 0.0 0.0
02:15 10.8 9.2 90 1021.3 0.0 SE 0.0 0.0 0.0
02:16 10.8 9.2 90 1021.3 0.0 SE 0.0 0.0 0.0
02:17 10.8 9.2 90 1021.2 0.0 SE 0.0 0.0 0.0
02:18 10.8 9.2 90 1021.3 0.0 SE 0.0 0.0 0.0
02:19 10.8 9.2 90 1021.2 0.0 SE 0.0 0.0 0.0
02:20 10.8 9.2 90 1021.3 0.0 SE 0.0 0.0 0.0
02:21 10.8 9.2 90 1021.2 0.0 SE 0.0 0.0 0.0
02:22 10.8 9.2 90 1021.2 0.0 SE 0.0 0.0 0.0
02:23 10.8 9.2 90 1021.3 0.0 SE 0.0 0.0 0.0
02:24 10.8 9.2 90 1021.2 0.0 E 0.0 0.0 0.0
02:25 10.8 9.2 90 1021.1 0.0 E 0.0 0.0 0.0
02:26 10.8 9.2 90 1021.2 0.0 SE 0.0 0.0 0.0
02:27 10.8 9.2 90 1021.2 0.0 SE 0.0 0.0 0.0
02:28 10.8 9.2 90 1021.2 0.0 SE 0.0 0.0 0.0
02:29 10.8 9.2 90 1021.2 0.0 SE 0.0 0.0 0.0
02:30 10.8 9.2 90 1021.2 0.0 SE 0.0 0.0 0.0
02:31 10.8 9.2 90 1021.2 0.0 SE 0.0 0.0 0.0
02:32 10.9 9.3 90 1021.2 0.0 SE 0.0 0.0 0.0
02:33 10.9 9.3 90 1021.2 0.0 SE 0.0 0.0 0.0
02:35 10.8 9.2 90 1021.1 0.0 SE 0.0 0.0 0.0
02:36 10.8 9.2 90 1021.2 0.0 SE 0.0 0.0 0.0
02:37 10.9 9.3 90 1021.3 0.0 SE 0.0 0.0 0.0
02:38 10.9 9.3 90 1021.2 0.0 SE 0.0 0.0 0.0
02:39 10.9 9.3 90 1021.2 0.0 SE 0.0 0.0 0.0
02:40 10.9 9.3 90 1021.2 0.0 SE 0.0 0.0 0.0
02:41 10.9 9.3 90 1021.2 0.0 SE 0.0 0.0 0.0
02:42 10.9 9.3 90 1021.2 0.0 SE 0.0 0.0 0.0
02:43 10.9 9.5 91 1021.3 0.0 SE 0.0 0.0 0.0
02:44 10.9 9.3 90 1021.3 0.0 E 0.0 0.0 0.0
02:45 10.9 9.5 91 1021.1 0.0 SE 0.0 0.0 0.0
02:46 10.9 9.5 91 1021.1 0.0 SE 0.0 0.0 0.0
02:47 10.9 9.5 91 1021.1 0.0 SE 0.0 0.0 0.0
02:48 10.9 9.5 91 1021.2 0.0 E 0.0 0.0 0.0
02:49 10.9 9.5 91 1021.3 0.0 SE 0.0 0.0 0.0
02:50 10.9 9.5 91 1021.2 0.0 SE 0.0 0.0 0.0
02:51 10.9 9.5 91 1021.1 0.0 SE 0.0 0.0 0.0
02:52 10.9 9.5 91 1021.1 0.0 SE 0.0 0.0 0.0
02:54 10.9 9.5 91 1021.1 0.0 E 0.0 0.0 0.0
02:55 10.9 9.5 91 1021.1 0.0 SE 0.0 0.0 0.0
02:56 11.0 9.6 91 1021.1 0.0 SE 0.0 0.0 0.0
02:57 11.0 9.6 91 1021.0 0.0 SE 0.0 0.0 0.0
02:58 11.0 9.6 91 1021.2 0.0 NE 0.0 0.0 0.0
02:59 11.0 9.6 91 1020.9 0.0 NE 0.0 0.0 0.0
03:00 11.0 9.6 91 1021.0 0.0 NE 0.0 0.0 0.0
03:01 11.0 9.6 91 1021.0 0.0 E 0.0 0.0 0.0
03:02 11.0 9.6 91 1020.9 0.0 E 0.0 0.0 0.0
03:03 11.0 9.6 91 1020.9 0.0 E 0.0 0.0 0.0
03:04 11.0 9.6 91 1020.9 0.0 E 0.0 0.0 0.0
03:05 11.0 9.6 91 1020.8 0.0 E 0.0 0.0 0.0
03:06 11.0 9.6 91 1020.7 0.0 SE 0.0 0.0 0.0
03:07 11.0 9.6 91 1020.7 0.0 SE 0.0 0.0 0.0
03:08 11.0 9.6 91 1020.6 0.0 SE 0.0 0.0 0.0
03:09 11.0 9.6 91 1020.8 0.0 E 0.0 0.0 0.0
03:10 11.0 9.6 91 1020.7 0.0 E 0.0 0.0 0.0
03:11 11.0 9.6 91 1020.8 0.0 NE 0.0 0.0 0.0
03:12 11.0 9.6 91 1020.8 0.0 E 0.0 0.0 0.0
03:13 11.0 9.6 91 1020.9 0.0 E 0.0 0.0 0.0
03:15 11.0 9.6 91 1020.8 0.0 E 0.0 0.0 0.0
03:16 11.0 9.6 91 1020.7 0.0 E 0.0 0.0 0.0
03:17 11.0 9.6 91 1020.7 0.0 E 0.0 0.0 0.0
03:18 11.0 9.6 91 1020.6 0.0 E 0.0 0.0 0.0
03:19 11.0 9.6 91 1020.6 0.0 E 0.0 0.0 0.0
03:20 11.0 9.6 91 1020.6 0.0 E 0.0 0.0 0.0
03:21 11.1 9.7 91 1020.6 0.0 N 0.0 0.0 0.0
03:22 11.1 9.7 91 1020.4 0.0 E 0.0 0.0 0.0
03:23 11.1 9.7 91 1020.5 0.0 E 0.0 0.0 0.0
03:24 11.1 9.7 91 1020.5 0.0 E 0.0 0.0 0.0
03:25 11.1 9.7 91 1020.5 0.0 E 0.0 0.0 0.0
03:26 11.1 9.7 91 1020.5 0.0 E 0.0 0.0 0.0
03:27 11.1 9.9 92 1020.5 0.0 E 0.0 0.0 0.0
03:28 11.1 9.9 92 1020.6 0.0 E 0.0 0.0 0.0
03:29 11.1 9.7 91 1020.6 0.0 E 0.0 0.0 0.0
03:30 11.1 9.7 91 1020.5 0.0 E 0.0 0.0 0.0
03:31 11.1 9.9 92 1020.5 0.0 NE 0.0 0.0 0.0
03:32 11.2 10.0 92 1020.5 0.0 NE 0.0 0.0 0.0
03:33 11.2 10.0 92 1020.6 0.0 NE 0.0 0.0 0.0
03:34 11.2 10.0 92 1020.6 0.0 NE 0.0 0.0 0.0
03:35 11.2 10.0 92 1020.5 0.0 NE 0.0 0.0 0.0
03:36 11.2 10.0 92 1020.6 0.0 E 0.0 0.0 0.0
03:38 11.2 10.0 92 1020.4 0.0 NE 0.0 0.0 0.0
03:39 11.2 10.0 92 1020.4 0.0 E 0.0 0.0 0.0
03:40 11.2 10.0 92 1020.4 0.0 N 0.0 0.0 0.0
03:41 11.2 10.0 92 1020.6 0.0 E 0.0 0.0 0.0
03:42 11.2 10.0 92 1020.3 0.0 E 0.0 0.0 0.0
03:43 11.2 10.0 92 1020.5 0.0 S 0.0 0.0 0.0
03:44 11.2 10.0 92 1020.3 0.0 NE 0.0 0.0 0.0
03:45 11.2 10.0 92 1020.3 0.0 E 0.0 0.0 0.0
03:46 11.2 10.0 92 1020.2 0.0 N 0.0 0.0 0.0
03:47 11.2 10.0 92 1020.2 0.0 N 0.0 0.0 0.0
03:48 11.2 10.0 92 1020.2 0.0 N 0.0 0.0 0.0
03:49 11.2 10.0 92 1020.2 0.0 NE 0.0 0.0 0.0
03:50 11.2 10.0 92 1020.3 0.0 N 0.0 0.0 0.0
03:51 11.2 10.0 92 1020.3 0.0 NE 0.0 0.0 0.0
03:52 11.2 10.0 92 1020.3 0.0 N 0.0 0.0 0.0
03:53 11.2 10.0 92 1020.3 0.0 NE 0.0 0.0 0.0
03:54 11.2 10.0 92 1020.2 0.0 NE 0.0 0.0 0.0
03:56 11.2 10.0 92 1020.3 0.0 NE 0.0 0.0 0.0
03:57 11.3 10.1 92 1020.1 0.0 NE 0.0 0.0 0.0
03:58 11.2 10.0 92 1020.3 0.0 NE 0.0 0.0 0.0
03:59 11.2 10.0 92 1020.2 0.0 SE 0.0 0.0 0.0
04:00 11.3 10.1 92 1020.3 0.0 SE 0.0 0.0 0.0
04:01 11.3 10.1 92 1020.3 0.0 SE 0.0 0.0 0.0
04:02 11.3 10.1 92 1020.3 0.0 SE 0.0 0.0 0.0
04:03 11.3 10.1 92 1020.3 0.0 SE 0.0 0.0 0.0
04:04 11.3 10.1 92 1020.3 0.0 SE 0.0 0.0 0.0
04:06 11.3 10.1 92 1020.3 0.0 SE 0.0 0.0 0.0
04:07 11.3 10.1 92 1020.3 0.0 SE 0.0 0.0 0.0
04:08 11.2 10.0 92 1020.2 0.0 SE 0.0 0.0 0.0
04:09 11.2 10.0 92 1020.3 0.0 SE 0.0 0.0 0.0
04:10 11.2 10.0 92 1020.2 0.0 SE 0.0 0.0 0.0
04:11 11.2 10.0 92 1020.3 0.0 SE 0.0 0.0 0.0
04:13 11.2 10.0 92 1020.1 0.7 SE 0.7 0.0 0.0
04:14 11.3 10.1 92 1020.3 0.7 E 0.7 0.0 0.0
04:15 11.3 10.1 92 1020.3 0.0 SE 0.7 0.0 0.0
04:16 11.3 10.1 92 1020.4 0.0 SE 0.7 0.0 0.0
04:17 11.3 10.1 92 1020.2 0.0 SE 0.7 0.0 0.0
04:18 11.3 10.1 92 1020.2 0.0 SE 0.7 0.0 0.0
04:19 11.3 10.1 92 1020.2 0.0 SE 0.7 0.0 0.0
04:20 11.2 10.0 92 1020.3 0.0 SE 0.7 0.0 0.0
04:21 11.2 10.0 92 1020.1 0.0 E 0.7 0.0 0.0
04:22 11.2 10.0 92 1020.2 0.7 SE 0.7 0.0 0.0
04:23 11.2 10.0 92 1020.1 0.0 SE 0.7 0.0 0.0
04:24 11.2 10.0 92 1019.9 0.0 SE 0.7 0.0 0.0
04:25 11.2 10.0 92 1019.9 0.0 E 0.7 0.0 0.0
04:26 11.2 10.0 92 1020.0 0.0 E 0.7 0.0 0.0
04:27 11.2 10.0 92 1019.9 0.0 E 0.7 0.0 0.0
04:28 11.2 10.0 92 1019.9 0.0 E 0.7 0.0 0.0
04:29 11.2 10.0 92 1020.0 0.0 E 0.7 0.0 0.0
04:30 11.2 10.0 92 1019.9 0.0 E 0.7 0.0 0.0
04:32 11.2 10.0 92 1019.8 0.0 E 0.7 0.0 0.0
04:33 11.2 10.0 92 1020.0 0.0 SE 0.7 0.0 0.0
04:34 11.3 10.1 92 1019.9 0.0 E 0.7 0.0 0.0
04:35 11.3 10.1 92 1019.9 0.0 E 0.7 0.0 0.0
04:36 11.2 10.0 92 1020.0 0.0 E 0.7 0.0 0.0
04:37 11.2 10.0 92 1019.8 0.0 E 0.0 0.0 0.0
04:38 11.2 10.0 92 1019.9 0.0 E 0.0 0.0 0.0
04:39 11.2 10.0 92 1020.0 0.0 E 0.0 0.0 0.0
04:40 11.3 10.1 92 1019.8 0.0 E 0.0 0.0 0.0
04:41 11.3 10.1 92 1019.9 0.0 SE 0.0 0.0 0.0
04:42 11.3 10.1 92 1019.9 0.0 SE 0.0 0.0 0.0
04:43 11.3 10.1 92 1019.8 0.0 SE 0.0 0.0 0.0
04:44 11.2 10.0 92 1019.9 0.0 SE 0.0 0.0 0.0
04:45 11.2 10.1 93 1020.0 0.0 E 0.0 0.0 0.0
04:46 11.2 10.1 93 1019.8 0.0 E 0.0 0.0 0.0
04:47 11.3 10.2 93 1019.8 0.0 E 0.0 0.0 0.0
04:48 11.3 10.2 93 1019.7 0.0 NE 0.0 0.0 0.0
04:49 11.3 10.2 93 1019.8 0.0 N 0.0 0.0 0.0
04:51 11.3 10.2 93 1019.8 0.0 E 0.0 0.0 0.1
04:52 11.2 10.1 93 1019.9 0.0 NE 0.0 0.8 0.1
04:53 11.3 10.2 93 1019.8 0.0 NE 0.0 0.8 0.1
04:54 11.2 10.1 93 1019.8 0.0 E 0.0 0.8 0.1
04:55 11.2 10.1 93 1019.7 0.0 NE 0.0 0.8 0.1
04:56 11.3 10.2 93 1019.6 0.0 N 0.0 0.8 0.1
04:57 11.2 10.1 93 1019.6 0.0 NW 0.0 0.0 0.1
04:58 11.3 10.2 93 1019.7 0.0 NW 0.0 0.0 0.1
04:59 11.3 10.2 93 1019.8 0.0 N 0.0 0.8 0.1
05:00 11.3 10.2 93 1019.7 0.0 NE 0.0 0.8 0.1
05:01 11.3 10.2 93 1019.7 0.0 NE 0.0 0.8 0.1
05:02 11.3 10.2 93 1019.7 0.0 NE 0.0 0.8 0.1
05:03 11.3 10.2 93 1019.8 0.0 NE 0.0 0.8 0.1
05:04 11.3 10.2 93 1019.8 0.0 NE 0.0 0.0 0.1
05:05 11.3 10.2 93 1019.6 0.7 N 0.7 0.0 0.1
05:06 11.3 10.2 93 1019.6 0.7 N 0.7 0.0 0.1
05:07 11.3 10.2 93 1019.7 0.7 E 0.7 0.0 0.1
05:08 11.3 10.2 93 1019.6 0.7 E 0.7 0.0 0.1
05:09 11.3 10.2 93 1019.6 0.0 SE 0.7 0.0 0.1
05:10 11.3 10.2 93 1019.6 0.7 E 0.7 0.0 0.1
05:11 11.3 10.2 93 1019.7 0.7 SE 0.7 0.0 0.1
05:12 11.3 10.2 93 1019.6 0.7 SE 0.7 0.0 0.1
05:13 11.3 10.2 93 1019.5 0.0 NE 0.7 0.0 0.1
05:15 11.3 10.2 93 1019.6 0.7 S 0.7 0.8 0.2
05:16 11.3 10.2 93 1019.6 0.7 SE 0.7 0.8 0.2
05:17 11.3 10.2 93 1019.5 0.7 SE 0.7 0.8 0.2
05:18 11.3 10.2 93 1019.6 0.7 SE 0.7 0.8 0.2
05:19 11.3 10.2 93 1019.6 0.7 E 0.7 0.8 0.2
05:20 11.3 10.2 93 1019.5 0.7 E 0.7 0.0 0.2
05:21 11.3 10.2 93 1019.6 0.7 SE 0.7 0.0 0.3
05:22 11.3 10.2 93 1019.7 0.0 E 0.7 0.8 0.3
05:23 11.3 10.2 93 1019.4 0.0 E 0.7 0.8 0.3
05:24 11.3 10.2 93 1019.5 0.7 E 0.7 0.8 0.3
05:25 11.3 10.2 93 1019.5 0.7 E 0.7 0.8 0.3
05:26 11.3 10.2 93 1019.6 0.7 SE 0.7 0.8 0.3
05:27 11.3 10.2 93 1019.5 0.0 SE 0.7 0.0 0.3
05:28 11.3 10.2 93 1019.5 0.0 S 0.7 0.8 0.3
05:29 11.3 10.2 93 1019.4 0.0 SE 0.7 0.8 0.3
05:30 11.3 10.2 93 1019.6 0.0 SE 0.7 1.5 0.4
05:31 11.3 10.2 93 1019.5 0.0 SE 0.7 1.5 0.4
05:32 11.3 10.4 94 1019.2 0.0 SE 0.7 1.5 0.4
05:34 11.3 10.2 93 1019.3 4.5 SE 7.6 2.3 0.5
05:35 11.3 10.2 93 1019.2 3.1 S 7.6 1.5 0.5
05:36 11.3 10.4 94 1019.1 3.8 SE 7.6 1.5 0.6
05:37 11.3 10.4 94 1019.3 3.8 SE 7.6 2.3 0.6
05:38 11.3 10.4 94 1019.2 3.1 SE 7.6 1.5 0.6
05:39 11.3 10.4 94 1019.2 2.2 SE 7.6 0.8 0.6
05:40 11.3 10.4 94 1019.3 3.8 SE 7.6 0.8 0.6
05:41 11.3 10.4 94 1019.3 4.5 SE 7.6 0.8 0.6
05:42 11.3 10.4 94 1019.2 4.5 SE 7.6 0.8 0.6
05:43 11.2 10.3 94 1019.2 3.1 SE 4.5 0.8 0.6
05:44 11.3 10.4 94 1019.3 4.5 SE 4.5 0.8 0.6
05:45 11.3 10.4 94 1019.3 4.5 SE 4.5 0.8 0.6
05:46 11.3 10.4 94 1019.3 3.8 SE 4.5 0.8 0.6
05:47 11.3 10.4 94 1019.4 3.1 SE 4.5 0.8 0.7
05:48 11.3 10.4 94 1019.3 3.8 SE 4.5 0.8 0.7
05:49 11.3 10.4 94 1019.3 3.8 S 4.5 0.8 0.7
05:50 11.3 10.4 94 1019.4 3.8 SE 4.5 0.8 0.7
05:51 11.3 10.4 94 1019.2 3.8 SE 4.5 0.8 0.7
05:53 11.3 10.4 94 1019.2 3.8 E 4.5 0.8 0.8
05:54 11.2 10.3 94 1019.2 3.1 SE 4.5 0.8 0.8
05:55 11.2 10.3 94 1019.3 3.1 SE 4.5 0.8 0.8
05:56 11.2 10.3 94 1019.2 3.8 SE 4.5 0.8 0.8
05:57 11.2 10.3 94 1019.2 3.8 SE 3.8 0.8 0.8
05:58 11.2 10.3 94 1019.2 2.2 SE 3.8 0.0 0.8
05:59 11.2 10.3 94 1019.3 3.1 SE 3.8 0.0 0.8
06:00 11.2 10.3 94 1019.3 3.8 SE 3.8 0.0 0.8
06:01 11.2 10.3 94 1019.4 3.8 SE 3.8 0.0 0.8
06:02 11.2 10.3 94 1019.2 3.8 SE 3.8 0.0 0.8
06:03 11.2 10.3 94 1019.2 3.8 SE 3.8 0.0 0.8
06:04 11.2 10.3 94 1019.4 3.8 SE 3.8 0.0 0.8
06:05 11.2 10.3 94 1019.4 3.8 SE 3.8 0.0 0.8
06:06 11.2 10.3 94 1019.2 3.8 SE 3.8 0.8 0.8
06:07 11.2 10.3 94 1019.3 3.8 SE 4.5 0.8 0.8
06:08 11.2 10.4 95 1019.3 3.8 SE 4.5 0.8 0.9
06:09 11.2 10.3 94 1019.3 3.1 SE 4.5 1.5 0.9
06:10 11.2 10.4 95 1019.3 3.8 SE 4.5 1.5 0.9
06:11 11.2 10.4 95 1019.3 5.4 S 5.4 0.8 0.9
06:12 11.2 10.4 95 1019.4 3.1 SE 5.4 0.8 0.9
06:14 11.2 10.4 95 1019.4 4.5 NNW 5.4 0.0 0.9
06:15 11.2 10.4 95 1019.4 3.1 E 5.4 0.0 0.9
06:16 11.2 10.4 95 1019.2 3.8 SE 5.4 0.8 0.9
06:17 11.2 10.4 95 1019.3 3.8 ESE 5.4 0.8 0.9
06:18 11.2 10.4 95 1019.3 3.8 SE 5.4 0.8 0.9
06:19 11.2 10.4 95 1019.3 3.1 SE 5.4 0.8 0.9
06:20 11.2 10.4 95 1019.2 3.1 SE 5.4 0.8 1.0
06:21 11.2 10.4 95 1019.3 3.1 SE 4.5 0.8 1.0
06:22 11.2 10.4 95 1019.2 3.8 SE 4.5 0.8 1.0
06:23 11.2 10.4 95 1019.3 3.1 E 4.5 0.8 1.0
06:24 11.2 10.4 95 1019.3 4.5 SE 4.5 0.8 1.0
06:25 11.2 10.4 95 1019.3 3.8 SE 4.5 0.8 1.0
06:26 11.2 10.4 95 1019.3 3.8 E 4.5 0.0 1.0
06:27 11.2 10.4 95 1019.3 3.8 SE 4.5 0.0 1.0
06:28 11.2 10.4 95 1019.3 3.1 SE 4.5 0.0 1.0
06:29 11.2 10.4 95 1019.4 2.2 SE 4.5 0.0 1.0
06:30 11.2 10.6 96 1019.3 3.1 SE 4.5 0.0 1.0
06:31 11.2 10.4 95 1019.4 3.1 SE 4.5 0.0 1.0
06:32 11.2 10.6 96 1019.3 3.8 SE 4.5 0.0 1.0
06:33 11.2 10.6 96 1019.3 3.8 SE 4.5 0.0 1.0
06:34 11.2 10.6 96 1019.3 2.2 SE 4.5 0.0 1.0
06:35 11.2 10.6 96 1019.4 3.1 SE 3.8 0.0 1.0
06:37 11.2 10.6 96 1019.4 2.2 ENE 3.8 0.0 1.0
06:38 11.2 10.6 96 1019.3 3.1 E 3.8 0.0 1.0
06:39 11.2 10.6 96 1019.3 2.2 SE 3.8 0.0 1.0
06:40 11.2 10.6 96 1019.4 3.1 E 3.8 0.0 1.0
06:41 11.2 10.6 96 1019.3 2.2 E 3.8 0.0 1.1
06:42 11.2 10.6 96 1019.6 0.7 SE 3.8 0.8 1.1
06:43 11.2 10.6 96 1019.3 0.0 SE 3.8 0.8 1.1
06:44 11.2 10.6 96 1019.3 0.0 N 3.8 0.8 1.1
06:45 11.2 10.6 96 1019.2 0.0 SE 3.8 0.8 1.1
06:46 11.2 10.6 96 1019.3 0.0 E 3.1 0.8 1.1
06:47 11.2 10.6 96 1019.2 0.0 SW 3.1 0.0 1.1
06:48 11.2 10.6 96 1019.2 0.0 SE 3.1 0.0 1.1
06:49 11.2 10.6 96 1019.3 0.0 SE 3.1 0.0 1.1
06:50 11.2 10.6 96 1019.2 0.0 SE 2.2 0.0 1.1
06:51 11.2 10.6 96 1019.1 0.0 NE 2.2 0.0 1.1
06:52 11.2 10.6 96 1019.0 0.0 NE 0.7 0.0 1.1
06:53 11.2 10.6 96 1019.1 0.0 E 0.0 0.0 1.1
06:54 11.2 10.6 96 1019.2 0.0 NE 0.0 0.0 1.1
06:55 11.2 10.6 96 1019.2 0.0 E 0.0 0.0 1.1
06:56 11.2 10.6 96 1019.1 0.0 NE 0.0 0.0 1.1
06:57 11.2 10.6 96 1019.0 0.0 NE 0.0 0.0 1.1
06:58 11.1 10.5 96 1018.8 0.0 SE 0.0 0.0 1.1
07:00 11.1 10.5 96 1018.9 0.0 N 0.0 0.0 1.1
07:01 11.1 10.5 96 1018.8 0.0 N 0.0 0.0 1.1
07:02 11.1 10.5 96 1018.8 0.0 N 0.0 0.0 1.1
07:03 11.1 10.5 96 1018.9 0.0 N 0.0 0.0 1.1
07:05 11.1 10.5 96 1018.8 0.0 N 0.0 0.0 1.1
07:06 11.1 10.5 96 1018.8 0.0 N 0.0 0.0 1.1
07:07 11.1 10.5 96 1018.7 0.0 E 0.0 0.0 1.1
07:08 11.1 10.5 96 1018.6 0.0 N 0.0 0.0 1.1
07:09 11.1 10.5 96 1018.6 0.7 N 0.7 0.0 1.1
07:10 11.1 10.6 97 1018.6 0.0 N 0.7 0.0 1.1
07:11 11.1 10.6 97 1018.7 0.0 N 0.7 0.0 1.1
07:12 11.1 10.6 97 1018.7 0.0 S 0.7 0.0 1.1
07:13 11.1 10.6 97 1018.6 0.7 N 0.7 0.0 1.1
07:14 11.1 10.6 97 1018.6 0.7 SE 0.7 0.0 1.1
07:15 11.1 10.6 97 1018.8 0.0 SE 0.7 0.0 1.1
07:16 11.1 10.6 97 1018.8 1.6 E 1.6 0.0 1.1
07:17 11.1 10.6 97 1018.6 0.0 SE 1.6 0.0 1.1
07:18 11.1 10.6 97 1018.7 0.0 SE 1.6 0.0 1.1
07:19 11.1 10.6 97 1018.5 0.0 N 1.6 0.0 1.1
07:20 11.1 10.6 97 1018.7 0.0 NW 1.6 0.0 1.1
07:21 11.1 10.6 97 1018.6 1.6 NE 1.6 0.0 1.1
07:22 11.1 10.6 97 1018.6 0.0 N 1.6 0.0 1.1
07:23 11.1 10.6 97 1018.8 0.0 NE 1.6 0.0 1.1
07:24 11.1 10.6 97 1018.4 0.0 N 1.6 0.0 1.1
07:25 11.1 10.6 97 1018.5 0.7 S 1.6 0.0 1.1
07:26 11.1 10.6 97 1018.6 0.7 E 1.6 0.0 1.1
07:27 11.1 10.6 97 1018.5 0.7 NE 1.6 0.0 1.1
07:28 11.1 10.6 97 1018.5 0.0 NW 1.6 0.0 1.1
07:29 11.1 10.6 97 1018.6 0.7 NE 1.6 0.0 1.1
07:30 11.1 10.6 97 1018.5 0.7 E 1.6 0.0 1.1
07:31 11.1 10.6 97 1018.5 1.6 S 1.6 0.0 1.1
07:32 11.2 10.7 97 1018.5 1.6 SE 1.6 0.0 1.1
07:33 11.2 10.7 97 1018.4 1.6 SE 1.6 0.0 1.1
07:34 11.2 10.7 97 1018.3 1.6 SE 1.6 0.0 1.1
07:35 11.2 10.7 97 1018.3 3.1 E 3.1 0.0 1.1
07:36 11.2 10.7 97 1018.3 2.2 SE 3.1 0.0 1.1
07:37 11.2 10.7 97 1018.4 3.1 N 3.1 0.0 1.1
07:38 11.1 10.6 97 1018.4 2.2 E 3.1 0.0 1.1
07:39 11.2 10.7 97 1018.3 1.6 S 3.1 0.0 1.1
07:40 11.1 10.6 97 1018.3 1.6 SE 3.1 0.0 1.1
07:41 11.2 10.7 97 1018.4 2.2 SE 3.1 0.0 1.1
07:42 11.2 10.7 97 1018.4 3.8 SE 3.8 0.0 1.1
07:43 11.1 10.6 97 1018.4 3.1 SE 3.8 0.0 1.1
07:44 11.2 10.7 97 1018.4 4.5 W 4.5 0.0 1.1
07:45 11.2 10.7 97 1018.3 3.1 SE 4.5 0.0 1.1
07:46 11.1 10.6 97 1018.3 3.8 S 4.5 0.0 1.1
07:47 11.1 10.6 97 1018.3 4.5 SE 4.5 0.0 1.1
07:48 11.1 10.6 97 1018.4 5.4 S 5.4 0.0 1.1
07:49 11.1 10.6 97 1018.4 6.9 SE 6.9 0.8 1.1
07:50 11.1 10.6 97 1018.4 9.8 SE 9.8 0.8 1.1
07:51 11.1 10.6 97 1018.3 7.6 SE 9.8 0.8 1.1
07:52 11.1 10.6 97 1018.4 7.6 S 9.8 0.8 1.1
07:53 11.1 10.6 97 1018.3 6.9 SE 9.8 0.8 1.1
07:54 11.1 10.6 97 1018.4 6.9 SE 9.8 0.0 1.1
07:55 11.1 10.6 97 1018.3 7.6 SE 9.8 0.0 1.1
07:56 11.1 10.6 97 1018.3 9.8 SE 9.8 0.0 1.1
07:57 11.1 10.6 97 1018.3 10.7 SE 10.7 0.0 1.1
07:58 11.1 10.6 97 1018.3 8.3 SE 10.7 0.0 1.1
07:59 11.1 10.6 97 1018.3 7.6 SE 10.7 0.0 1.1
08:00 11.0 10.5 97 1018.4 6.9 S 10.7 0.0 1.1
08:01 11.0 10.5 97 1018.4 9.2 SE 10.7 0.0 1.1
08:02 11.0 10.5 97 1018.3 7.6 SE 10.7 0.0 1.1
08:03 11.0 10.5 97 1018.3 8.3 SE 10.7 0.0 1.1
08:04 11.0 10.5 97 1018.2 6.0 S 10.7 0.0 1.1
08:05 10.9 10.4 97 1018.4 8.3 SE 10.7 0.0 1.1
08:06 10.9 10.4 97 1018.4 7.6 SE 10.7 0.0 1.1
08:07 10.9 10.4 97 1018.3 6.0 SE 9.2 0.0 1.1
08:08 10.9 10.4 97 1018.3 5.4 SE 9.2 0.0 1.1
08:09 10.8 10.3 97 1018.3 6.0 SE 9.2 0.0 1.1
08:10 10.8 10.3 97 1018.3 4.5 SE 9.2 0.0 1.1
08:11 10.8 10.3 97 1018.3 6.9 SE 9.2 0.0 1.1
08:12 10.8 10.3 97 1018.4 4.5 S 8.3 0.0 1.1
08:13 10.8 10.3 97 1018.3 5.4 SE 8.3 0.0 1.1
08:14 10.8 10.3 97 1018.3 5.4 SE 8.3 0.0 1.1
08:15 10.8 10.3 97 1018.3 8.3 S 8.3 0.0 1.1
08:16 10.8 10.3 97 1018.3 5.4 SSW 8.3 0.0 1.1
08:17 10.8 10.3 97 1018.2 9.8 SE 9.8 0.0 1.1
08:18 10.8 10.5 98 1018.2 9.2 SE 9.8 0.0 1.1
08:19 10.8 10.5 98 1017.9 8.3 SE 9.8 0.0 1.1
08:20 10.8 10.5 98 1018.0 8.3 SE 9.8 0.0 1.1
08:21 10.8 10.5 98 1018.0 6.9 E 9.8 0.0 1.1
08:22 10.8 10.5 98 1018.2 6.0 SE 9.8 0.0 1.1
08:23 10.8 10.5 98 1018.1 7.6 S 9.8 0.0 1.1
08:24 10.8 10.5 98 1018.2 6.0 SSE 9.8 0.0 1.1
08:25 10.8 10.5 98 1018.2 9.8 S 9.8 0.0 1.1
08:26 10.8 10.5 98 1018.1 6.9 SE 9.8 0.0 1.1
08:27 10.8 10.5 98 1018.1 5.4 N 9.8 0.0 1.1
08:28 10.8 10.5 98 1017.9 9.8 SE 9.8 0.0 1.2
08:29 10.8 10.5 98 1018.0 8.3 SSW 9.8 0.8 1.2
08:30 10.7 10.4 98 1018.0 4.5 SE 9.8 0.8 1.3
08:31 10.8 10.5 98 1017.9 4.5 E 9.8 1.5 1.3
08:32 10.8 10.5 98 1018.0 5.4 SE 9.8 1.5 1.3
08:33 10.8 10.5 98 1018.0 6.0 E 9.8 1.5 1.3
08:34 10.8 10.5 98 1018.0 6.0 SE 9.8 0.8 1.3
08:35 10.8 10.5 98 1018.0 4.5 SE 9.8 0.8 1.3
08:36 10.8 10.5 98 1017.9 4.5 E 9.8 0.0 1.3
08:37 10.8 10.5 98 1018.0 3.8 SE 9.8 0.0 1.3
08:38 10.8 10.5 98 1018.0 5.4 SE 9.8 0.0 1.3
08:39 10.8 10.5 98 1018.0 4.5 SE 8.3 0.0 1.3
08:40 10.8 10.5 98 1018.0 4.5 SE 6.0 0.0 1.3
08:41 10.8 10.5 98 1017.9 6.0 S 6.0 0.0 1.3
08:42 10.8 10.5 98 1017.9 4.5 SE 6.0 0.8 1.3
08:43 10.8 10.5 98 1017.9 3.8 S 6.0 0.8 1.3
08:44 10.8 10.5 98 1018.0 3.8 E 6.0 0.8 1.4
08:45 10.8 10.5 98 1018.0 3.8 SE 6.0 1.5 1.4
08:46 10.8 10.5 98 1018.0 6.0 SE 6.0 1.5 1.4
08:47 10.8 10.5 98 1018.1 3.8 S 6.0 0.8 1.4
08:48 10.8 10.5 98 1018.1 3.1 N 6.0 0.8 1.4
08:49 10.8 10.5 98 1018.1 6.0 SE 6.0 0.8 1.4
08:50 10.8 10.5 98 1018.1 6.0 SE 6.0 0.0 1.4
08:51 10.8 10.7 99 1018.1 9.2 N 11.4 0.0 1.4
08:52 10.8 10.7 99 1018.1 5.4 NW 11.4 0.0 1.4
08:53 10.8 10.7 99 1018.0 8.3 S 11.4 0.0 1.4
08:54 10.8 10.7 99 1018.0 5.4 SE 11.4 0.0 1.4
08:55 10.7 10.6 99 1017.9 3.8 SE 11.4 0.0 1.4
08:56 10.7 10.6 99 1017.8 5.4 NE 11.4 0.0 1.4
08:57 10.8 10.7 99 1017.8 5.4 SE 11.4 0.0 1.4
08:59 10.8 10.7 99 1017.7 9.2 SE 11.4 0.0 1.4
09:00 10.8 10.7 99 1017.6 8.3 SE 11.4 0.0 1.4
09:01 10.8 10.7 99 1017.7 7.6 SE 11.4 0.0 1.4
09:02 10.8 10.7 99 1017.6 8.3 SE 9.2 0.0 1.4
09:03 10.8 10.7 99 1017.5 6.0 SE 9.2 0.0 1.4
09:04 10.8 10.7 99 1017.5 7.6 SE 9.2 0.0 1.4
09:05 10.8 10.7 99 1017.4 9.2 SE 9.2 0.0 1.4
09:06 10.8 10.7 99 1017.3 7.6 SE 9.2 0.0 1.4
09:07 10.7 10.6 99 1017.4 5.4 NE 9.2 0.0 1.4
09:08 10.8 10.7 99 1017.4 9.2 E 9.2 0.0 1.4
09:09 10.8 10.7 99 1017.3 9.8 SE 9.8 0.0 1.4
09:10 10.7 10.6 99 1017.5 6.9 SE 9.8 0.0 1.4
09:11 10.7 10.6 99 1017.2 9.8 SE 9.8 0.0 1.4
09:12 10.7 10.6 99 1017.2 9.2 ENE 9.8 0.0 1.4
09:13 10.7 10.6 99 1017.3 5.4 SE 9.8 0.0 1.4
09:14 10.7 10.6 99 1017.3 8.3 SE 9.8 0.0 1.4
09:15 10.7 10.6 99 1017.1 5.4 S 9.8 0.0 1.4
09:16 10.7 10.6 99 1017.3 6.0 SE 9.8 0.0 1.4
09:17 10.7 10.6 99 1017.2 5.4 NE 9.8 0.0 1.4
09:18 10.7 10.6 99 1017.2 5.4 N 9.8 0.0 1.4
09:19 10.7 10.6 99 1017.1 5.4 N 9.8 0.0 1.4
09:20 10.7 10.6 99 1017.1 5.4 SE 9.8 0.0 1.4
09:21 10.7 10.6 99 1017.1 5.4 E 9.2 0.0 1.4
09:22 10.7 10.6 99 1017.1 6.0 SE 8.3 0.0 1.4
09:23 10.7 10.6 99 1017.1 6.9 E 8.3 0.0 1.4
09:24 10.7 10.6 99 1017.0 5.4 SE 6.9 0.0 1.4
09:25 10.7 10.6 99 1016.9 6.0 SE 6.9 0.0 1.4
09:26 10.7 10.6 99 1017.0 5.4 S 6.9 0.0 1.4
09:28 10.7 10.6 99 1016.9 7.6 SE 7.6 0.0 1.4
09:29 10.7 10.6 99 1016.8 7.6 SE 8.3 0.0 1.4
09:31 10.7 10.6 99 1016.9 6.9 SE 8.3 0.0 1.4
09:32 10.7 10.6 99 1016.6 6.9 N 8.3 0.0 1.4
09:33 10.7 10.6 99 1016.8 7.6 SE 8.3 0.0 1.4
09:34 10.7 10.6 99 1016.7 8.3 SE 8.3 0.0 1.4
09:35 10.8 10.7 99 1016.8 6.0 N 8.3 0.0 1.4
09:36 10.7 10.6 99 1016.7 4.5 SE 8.3 0.0 1.4
09:37 10.7 10.6 99 1016.8 7.6 SE 9.2 0.0 1.4
09:38 10.7 10.6 99 1016.6 4.5 SE 9.2 0.0 1.4
09:39 10.7 10.6 99 1016.7 3.8 E 9.2 0.0 1.4
09:40 10.7 10.6 99 1016.7 5.4 SE 9.2 0.0 1.4
09:41 10.7 10.6 99 1016.7 6.0 SE 9.2 0.0 1.4
09:42 10.8 10.7 99 1016.7 7.6 E 9.2 0.0 1.4
09:43 10.7 10.6 99 1016.6 5.4 SW 9.2 0.0 1.4
09:44 10.8 10.7 99 1016.5 5.4 NE 9.2 0.0 1.4
09:45 10.8 10.7 99 1016.5 6.0 ENE 9.2 0.0 1.4
09:46 10.8 10.7 99 1016.4 8.3 SE 9.2 0.0 1.4
09:47 10.8 10.7 99 1016.3 7.6 SW 11.4 0.0 1.4
09:48 10.8 10.7 99 1016.5 6.9 SE 11.4 0.0 1.4
09:49 10.8 10.7 99 1016.4 5.4 SE 11.4 0.0 1.4
09:50 10.8 10.7 99 1016.3 5.4 E 11.4 0.0 1.4
09:51 10.8 10.7 99 1016.2 4.5 SE 11.4 0.0 1.4
09:52 10.8 10.7 99 1016.4 2.2 E 11.4 0.0 1.4
09:53 10.8 10.7 99 1016.4 3.8 E 11.4 0.0 1.4
09:54 10.8 10.7 99 1016.3 4.5 SE 11.4 0.0 1.4
09:55 10.8 10.7 99 1016.4 3.8 SW 11.4 0.0 1.4
09:56 10.8 10.7 99 1016.4 1.6 SE 11.4 0.0 1.4
09:57 10.8 10.7 99 1016.5 2.2 NW 7.6 0.0 1.4
09:58 10.8 10.7 99 1016.3 6.9 NE 7.6 0.0 1.4
10:00 10.9 10.8 99 1016.3 3.8 SE 7.6 0.0 1.4
10:01 10.9 10.8 99 1016.4 6.0 NE 7.6 0.0 1.4
10:02 10.9 10.8 99 1016.2 6.0 E 7.6 0.0 1.4
10:03 10.9 10.8 99 1016.3 3.1 NE 7.6 0.0 1.4
10:04 10.9 10.8 99 1016.2 5.4 S 7.6 0.8 1.4
10:05 10.9 10.8 99 1016.2 3.1 SSE 7.6 0.8 1.4
10:06 11.0 10.9 99 1016.2 3.1 NE 6.9 1.5 1.5
10:07 10.9 10.8 99 1016.1 3.8 ENE 6.9 1.5 1.5
10:08 11.0 10.9 99 1016.1 3.1 N 6.9 1.5 1.5
10:09 11.0 10.9 99 1016.0 4.5 E 6.9 0.8 1.5
10:10 11.0 10.9 99 1016.1 6.9 NE 6.9 0.8 1.5
10:11 11.0 10.9 99 1015.9 8.3 E 8.3 0.0 1.5
10:12 11.0 10.9 99 1016.0 9.2 E 9.2 0.0 1.5
10:13 11.1 11.0 99 1016.1 6.9 S 9.2 0.8 1.6
10:14 11.1 11.0 99 1016.0 9.2 E 9.2 0.8 1.6
10:15 11.1 11.0 99 1015.9 6.9 E 9.2 0.8 1.6
10:16 11.1 11.0 99 1016.0 10.7 SE 10.7 1.5 1.6
10:17 11.1 11.0 99 1015.9 6.9 WSW 10.7 1.5 1.6
10:18 11.1 11.0 99 1015.9 8.3 SE 10.7 0.8 1.6
10:19 11.1 11.0 99 1016.0 6.9 SE 10.7 0.8 1.6
10:20 11.2 11.1 99 1015.8 6.9 SW 10.7 0.8 1.6
10:21 11.2 11.1 99 1015.9 7.6 SE 10.7 0.0 1.6
10:22 11.2 11.1 99 1015.8 4.5 SW 10.7 0.0 1.6
10:23 11.2 11.1 99 1015.8 4.5 SW 10.7 0.0 1.6
10:25 11.2 11.1 99 1015.8 9.8 E 11.4 0.0 1.6
10:26 11.2 11.1 99 1015.6 9.2 SE 11.4 0.0 1.6
10:27 11.2 11.1 99 1015.5 5.4 E 11.4 0.0 1.6
10:28 11.2 11.1 99 1015.5 6.0 SE 11.4 0.0 1.6
10:29 11.2 11.1 99 1015.4 7.6 E 11.4 0.0 1.6
10:30 11.2 11.1 99 1015.4 13.6 SE 13.6 0.8 1.7
10:31 11.2 11.1 99 1015.6 9.2 SE 13.6 0.8 1.7
10:32 11.2 11.1 99 1015.4 9.2 E 13.6 1.5 1.8
10:33 11.2 11.1 99 1015.3 4.5 NW 13.6 1.5 1.8
10:34 11.2 11.1 99 1015.4 7.6 S 13.6 2.3 1.8
10:35 11.2 11.1 99 1015.2 9.2 SW 13.6 1.5 1.8
10:36 11.2 11.1 99 1015.3 9.8 E 13.6 1.5 1.9
10:37 11.2 11.1 99 1015.3 10.7 SE 13.6 1.5 1.9
10:38 11.2 11.1 99 1015.4 7.6 E 13.6 1.5 1.9
10:39 11.2 11.1 99 1015.3 5.4 SE 13.6 0.8 1.9
10:40 11.2 11.1 99 1015.2 8.3 NNW 10.7 0.8 1.9
10:41 11.3 11.2 99 1015.3 9.2 NE 10.7 1.5 2.0
10:42 11.3 11.2 99 1015.2 9.2 ESE 10.7 0.8 2.0
10:43 11.3 11.2 99 1015.2 12.1 E 12.1 0.8 2.0
10:44 11.2 11.1 99 1015.3 7.6 N 12.1 0.8 2.0
10:45 11.2 11.1 99 1015.2 7.6 ENE 12.1 1.5 2.0
10:46 11.2 11.1 99 1015.3 10.7 SW 12.1 0.8 2.0
10:47 11.3 11.2 99 1015.3 5.4 N 12.1 0.8 2.0
10:48 11.3 11.2 99 1015.1 12.1 SE 12.1 0.8 2.0
10:49 11.3 11.2 99 1015.1 9.8 W 12.1 0.8 2.0
10:50 11.2 11.1 99 1015.1 10.7 SE 12.1 0.0 2.0
10:51 11.2 11.1 99 1015.0 5.4 SE 12.1 0.8 2.1
10:53 11.3 11.2 99 1015.0 5.4 N 12.1 0.8 2.1
10:54 11.2 11.1 99 1014.9 6.9 NW 12.1 0.8 2.1
10:55 11.2 11.1 99 1015.0 8.3 NW 12.1 1.5 2.1
10:56 11.3 11.2 99 1015.0 10.7 N 12.1 0.8 2.1
10:57 11.3 11.2 99 1014.9 7.6 NE 12.1 1.5 2.2
10:58 11.2 11.1 99 1014.8 6.9 N 12.1 2.3 2.3
10:59 11.3 11.2 99 1014.9 4.5 SE 10.7 2.3 2.3
11:00 11.3 11.2 99 1014.8 8.3 SE 10.7 1.5 2.3
11:01 11.3 11.2 99 1014.6 8.3 SE 10.7 2.3 2.3
11:02 11.3 11.2 99 1014.6 6.9 S 10.7 2.3 2.5
11:03 11.3 11.2 99 1014.7 11.4 S 11.4 2.3 2.5
11:04 11.3 11.2 99 1014.7 6.0 WNW 11.4 2.3 2.5
11:05 11.3 11.2 99 1014.6 6.0 SSW 11.4 3.0 2.5
11:06 11.3 11.2 99 1014.5 5.4 SE 11.4 3.0 2.6
11:07 11.3 11.2 99 1014.5 8.3 E 11.4 2.3 2.6
11:08 11.3 11.2 99 1014.3 5.4 E 11.4 2.3 2.7
11:09 11.3 11.2 99 1014.4 6.9 NW 11.4 3.8 2.8
11:10 11.3 11.2 99 1014.4 6.9 SE 11.4 4.5 2.9
11:11 11.4 11.3 99 1014.1 6.0 N 11.4 3.8 3.0
11:12 11.4 11.3 99 1013.9 7.6 N 11.4 4.5 3.0
11:13 11.4 11.3 99 1014.0 10.7 SE 11.4 4.5 3.0
11:15 11.4 11.3 99 1014.0 6.9 SE 10.7 1.5 3.0
11:16 11.4 11.3 99 1014.0 12.1 E 12.1 2.3 3.1
11:17 11.4 11.3 99 1013.9 10.7 N 12.1 2.3 3.1
11:18 11.4 11.3 99 1014.0 10.7 N 12.1 1.5 3.1
11:19 11.4 11.3 99 1014.0 8.3 SE 12.1 2.3 3.2
11:20 11.4 11.3 99 1013.9 7.6 SE 12.1 2.3 3.2
11:21 11.5 11.4 99 1013.8 8.3 NE 12.1 2.3 3.3
11:22 11.5 11.4 99 1013.7 8.3 NE 12.1 2.3 3.3
11:23 11.5 11.4 99 1013.7 6.0 NE 12.1 3.0 3.4
11:24 11.5 11.4 99 1013.7 9.2 W 12.1 2.3 3.4
11:25 11.5 11.4 99 1013.4 6.9 N 12.1 3.0 3.5
11:26 11.5 11.4 99 1013.4 8.3 N 10.7 2.3 3.5
11:27 11.5 11.4 99 1013.6 7.6 E 10.7 1.5 3.5
11:28 11.6 11.5 99 1013.4 11.4 SE 11.4 0.8 3.5
11:29 11.5 11.4 99 1013.5 12.1 NE 12.1 1.5 3.5
11:30 11.6 11.5 99 1013.4 9.8 NE 12.1 0.8 3.5
11:31 11.6 11.5 99 1013.3 8.3 ENE 12.1 0.8 3.5
11:32 11.6 11.5 99 1013.2 7.6 SE 12.1 0.8 3.6
11:33 11.6 11.5 99 1013.3 9.8 ESE 12.1 1.5 3.6
11:34 11.6 11.5 99 1013.2 7.6 NE 12.1 0.8 3.7
11:35 11.6 11.5 99 1013.3 7.6 NE 12.1 1.5 3.7
11:36 11.6 11.5 99 1013.2 9.2 N 12.1 1.5 3.7
11:37 11.6 11.5 99 1013.1 9.8 NE 12.1 1.5 3.7
11:38 11.7 11.6 99 1013.1 7.6 N 12.1 0.8 3.7
11:39 11.7 11.6 99 1013.0 10.7 S 10.7 1.5 3.7
11:40 11.7 11.6 99 1013.2 6.0 E 10.7 0.8 3.8
11:41 11.7 11.6 99 1013.2 6.9 N 10.7 1.5 3.8
11:42 11.7 11.6 99 1013.1 6.9 NE 10.7 1.5 3.8
11:44 11.7 11.6 99 1012.9 6.0 N 10.7 2.3 3.9
11:45 11.8 11.7 99 1013.0 8.3 NW 10.7 3.8 4.0
11:46 11.8 11.7 99 1013.0 4.5 SE 10.7 3.0 4.0
11:47 11.8 11.7 99 1013.0 7.6 SE 10.7 3.8 4.1
11:48 11.8 11.7 99 1012.8 12.1 SE 12.1 3.8 4.2
11:49 11.8 11.7 99 1013.0 9.8 S 13.0 3.8 4.2
11:50 11.8 11.7 99 1012.8 13.6 NW 13.6 3.0 4.3
11:51 11.8 11.7 99 1013.0 7.6 S 13.6 3.0 4.3
11:52 11.8 11.7 99 1012.9 14.5 SE 14.5 3.0 4.3
11:53 11.8 11.7 99 1012.6 5.4 NW 14.5 3.8 4.5
11:54 11.8 11.7 99 1012.8 9.2 S 14.5 3.8 4.5
11:55 11.9 11.8 99 1012.7 11.4 NE 14.5 3.0 4.5
11:56 11.9 11.8 99 1012.7 7.6 SE 14.5 3.0 4.6
11:57 11.9 11.8 99 1012.6 11.4 NW 14.5 3.8 4.7
11:58 11.9 11.8 99 1012.6 8.3 S 14.5 2.3 4.7
11:59 11.9 11.8 99 1012.7 12.1 E 14.5 2.3 4.8
12:00 11.9 11.8 99 1012.7 9.2 SE 14.5 3.8 4.9
12:01 11.9 11.8 99 1012.6 9.2 SE 14.5 3.8 4.9
12:02 12.0 11.9 99 1012.6 5.4 NE 12.1 3.0 5.0
12:03 12.0 11.9 99 1012.6 9.2 E 12.1 3.8 5.0
12:04 12.0 11.9 99 1012.5 6.9 SE 12.1 3.8 5.1
12:05 12.0 11.9 99 1012.8 9.8 NE 12.1 3.8 5.2
12:06 12.0 11.9 99 1012.8 9.2 SW 12.1 3.8 5.2
12:07 12.0 11.9 99 1012.7 7.6 SW 12.1 3.0 5.2
12:08 12.0 11.9 99 1012.6 7.6 NW 12.1 3.0 5.2
12:09 12.1 12.0 99 1012.6 8.3 NW 12.1 2.3 5.2
12:10 12.1 12.0 99 1012.5 4.5 E 9.8 1.5 5.3
12:12 12.1 12.0 99 1012.6 13.0 WNW 13.0 2.3 5.4
12:13 12.1 12.0 99 1012.4 7.6 SE 13.0 2.3 5.4
12:14 12.1 12.0 99 1012.4 9.8 SE 13.0 3.0 5.5
12:15 12.2 12.1 99 1012.4 9.2 S 13.0 3.0 5.5
12:16 12.2 12.1 99 1012.2 4.5 SSE 13.0 3.8 5.7
12:17 12.2 12.1 99 1012.2 11.4 S 13.0 4.5 5.7
12:18 12.2 12.1 99 1012.2 9.8 S 13.0 3.8 5.7
12:19 12.2 12.1 99 1012.1 13.6 SE 13.6 3.8 5.8
12:20 12.2 12.1 99 1012.2 13.0 NW 13.6 3.8 5.9
12:21 12.3 12.2 99 1012.2 11.4 SE 13.6 3.8 5.9
12:22 12.3 12.2 99 1012.1 9.2 E 13.6 2.3 5.9
12:23 12.3 12.2 99 1012.0 9.8 E 13.6 3.0 6.0
12:24 12.3 12.2 99 1011.7 15.9 N 15.9 2.3 6.0
12:25 12.3 12.2 99 1011.8 9.8 SE 15.9 2.3 6.0
12:26 12.3 12.2 99 1011.8 12.1 ESE 15.9 1.5 6.1
12:27 12.3 12.2 99 1011.8 10.7 N 15.9 2.3 6.1
12:28 12.3 12.2 99 1012.0 10.7 NNE 15.9 1.5 6.2
12:29 12.3 12.2 99 1012.0 6.9 E 15.9 2.3 6.2
12:30 12.3 12.2 99 1011.8 12.1 NW 15.9 2.3 6.2
12:31 12.3 12.2 99 1011.9 8.3 NE 15.9 2.3 6.3
12:32 12.3 12.2 99 1011.9 11.4 WNW 15.9 2.3 6.3
12:33 12.3 12.2 99 1011.6 13.0 E 15.9 2.3 6.3
12:34 12.3 12.2 99 1011.8 8.3 NE 15.9 2.3 6.4
12:35 12.3 12.2 99 1011.8 10.7 SE 13.0 1.5 6.4
12:36 12.4 12.3 99 1011.6 9.8 NE 13.0 1.5 6.4
12:37 12.4 12.3 99 1011.8 8.3 NE 13.0 0.8 6.4
12:38 12.4 12.3 99 1011.8 11.4 NW 13.0 1.5 6.4
12:39 12.4 12.3 99 1011.7 9.2 SE 13.0 0.8 6.4
12:41 12.4 12.3 99 1012.1 6.9 SE 13.0 0.8 6.4
12:42 12.4 12.3 99 1011.8 10.7 SE 13.0 1.5 6.5
12:43 12.4 12.3 99 1011.9 6.9 SE 13.0 0.8 6.5
12:44 12.4 12.3 99 1012.0 7.6 NW 11.4 0.8 6.5
12:45 12.7 12.6 99 1011.9 9.2 N 11.4 0.8 6.5
12:46 12.4 12.3 99 1011.8 5.4 NW 11.4 0.8 6.5
12:47 12.4 12.3 99 1011.9 7.6 S 11.4 0.8 6.6
12:48 12.4 12.3 99 1011.9 6.0 NE 11.4 0.8 6.6
12:49 12.4 12.3 99 1011.9 6.9 SW 10.7 0.8 6.6
12:50 12.4 12.3 99 1011.9 6.0 E 10.7 0.8 6.6
12:51 12.4 12.3 99 1011.7 6.0 S 10.7 0.8 6.6
12:52 12.5 12.4 99 1011.8 9.2 S 9.2 0.0 6.6
12:53 12.5 12.4 99 1011.7 3.8 N 9.2 0.8 6.6
12:54 12.5 12.4 99 1011.8 9.2 SE 9.2 0.8 6.6
12:55 12.5 12.4 99 1011.6 6.9 WSW 9.2 0.8 6.7
12:56 12.5 12.4 99 1011.6 13.0 S 13.0 1.5 6.7
12:57 12.5 12.4 99 1011.6 6.0 NW 13.0 1.5 6.7
12:58 12.5 12.4 99 1011.7 9.2 E 13.0 1.5 6.7
12:59 12.5 12.4 99 1011.5 11.4 WSW 13.0 1.5 6.8
13:00 12.5 12.4 99 1011.6 7.6 N 13.0 2.3 6.8
13:01 12.5 12.4 99 1011.4 7.6 N 13.0 1.5 6.8
13:02 12.6 12.5 99 1011.5 6.0 N 13.0 2.3 6.9
13:03 12.6 12.5 99 1011.7 6.0 NW 13.0 1.5 6.9
13:04 12.6 12.5 99 1011.6 3.8 N 13.0 1.5 6.9
13:05 12.6 12.5 99 1011.7 4.5 SE 13.0 1.5 6.9
13:06 12.6 12.5 99 1011.5 10.7 E 13.0 1.5 6.9
13:07 12.6 12.5 99 1011.5 5.4 N 11.4 0.8 6.9
13:08 12.6 12.5 99 1011.5 7.6 NE 11.4 0.8 7.0
13:09 12.6 12.5 99 1011.2 7.6 S 11.4 1.5 7.0
13:10 12.6 12.5 99 1011.4 9.2 NE 10.7 1.5 7.1
13:11 12.6 12.5 99 1011.2 7.6 ESE 10.7 1.5 7.1
13:12 12.7 12.6 99 1011.2 6.0 E 10.7 1.5 7.1
13:14 12.7 12.6 99 1011.1 6.0 NW 10.7 1.5 7.1
13:15 12.7 12.6 99 1011.1 7.6 N 10.7 0.8 7.1
13:16 12.7 12.6 99 1011.1 6.0 N 10.7 1.5 7.2
13:17 12.7 12.6 99 1011.1 8.3 N 9.2 1.5 7.2
13:18 12.7 12.6 99 1011.0 5.4 S 9.2 2.3 7.2
13:19 12.7 12.6 99 1011.0 5.4 NE 9.2 2.3 7.3
13:20 12.8 12.7 99 1011.0 6.9 E 9.2 2.3 7.3
13:21 12.8 12.7 99 1010.9 6.0 E 8.3 1.5 7.4
13:22 12.8 12.7 99 1010.8 9.8 NW 9.8 2.3 7.4
13:23 12.8 12.7 99 1010.8 6.9 N 9.8 1.5 7.4
13:24 12.8 12.7 99 1010.8 9.8 N 9.8 1.5 7.4
13:25 12.8 12.7 99 1010.8 7.6 N 9.8 1.5 7.4
13:26 12.8 12.7 99 1010.7 7.6 WNW 9.8 1.5 7.4
13:27 12.8 12.7 99 1010.6 8.3 SW 9.8 0.8 7.5
13:28 12.8 12.7 99 1010.7 6.0 NW 9.8 1.5 7.5
13:29 12.8 12.7 99 1010.7 6.0 N 9.8 0.8 7.5
13:30 12.8 12.7 99 1010.5 8.3 NW 9.8 1.5 7.6
13:31 12.8 12.7 99 1010.7 5.4 NW 9.8 1.5 7.6
13:32 12.8 12.7 99 1010.7 6.9 WNW 9.8 1.5 7.6
13:33 12.9 12.8 99 1010.6 5.4 E 9.8 0.8 7.6
13:34 12.9 12.8 99 1010.4 6.9 NW 9.2 1.5 7.7
13:35 12.9 12.8 99 1010.4 13.0 E 13.0 1.5 7.7
13:36 12.9 12.8 99 1010.5 3.8 N 13.0 1.5 7.7
13:37 12.9 12.8 99 1010.4 6.0 NW 13.0 2.3 7.7
13:38 12.9 12.8 99 1010.5 5.4 SE 13.0 3.0 7.8
13:39 12.9 12.8 99 1010.3 6.9 NW 13.0 2.3 7.8
13:41 13.0 12.9 99 1010.5 6.0 W 13.0 2.3 7.9
13:42 13.0 12.9 99 1010.5 5.4 WNW 13.0 1.5 7.9
13:43 13.0 12.9 99 1010.4 4.5 NE 13.0 1.5 7.9
13:44 13.0 12.9 99 1010.4 5.4 NW 13.0 1.5 8.0
13:45 13.0 12.9 99 1010.3 4.5 NW 13.0 1.5 8.0
13:46 13.1 13.0 99 1010.4 3.8 NE 7.6 1.5 8.0
13:47 13.1 13.0 99 1010.3 4.5 E 7.6 1.5 8.0
13:48 13.1 13.0 99 1010.3 4.5 N 7.6 1.5 8.1
13:49 13.1 13.0 99 1010.3 5.4 SW 7.6 1.5 8.1
13:50 13.1 13.0 99 1010.2 5.4 NE 6.0 1.5 8.1
13:51 13.1 13.0 99 1010.2 5.4 W 6.0 1.5 8.1
13:52 13.1 13.0 99 1010.1 4.5 NE 6.0 2.3 8.2
13:53 13.1 13.0 99 1010.0 6.9 NE 6.9 1.5 8.2
13:54 13.2 13.1 99 1010.0 5.4 NE 6.9 2.3 8.3
13:55 13.2 13.1 99 1010.0 7.6 N 7.6 1.5 8.3
13:56 13.2 13.1 99 1010.0 6.0 S 7.6 2.3 8.3
13:57 13.2 13.1 99 1010.0 7.6 S 7.6 1.5 8.3
13:58 13.2 13.1 99 1009.9 4.5 NW 7.6 1.5 8.3
13:59 13.2 13.1 99 1009.9 6.9 SE 7.6 0.8 8.3
14:00 13.2 13.1 99 1010.1 3.8 SE 7.6 0.8 8.3
14:01 13.2 13.1 99 1009.8 3.8 SE 7.6 0.0 8.3
14:02 13.2 13.1 99 1009.8 5.4 N 7.6 0.8 8.4
14:03 13.2 13.1 99 1009.8 5.4 NE 7.6 1.5 8.4
14:04 13.2 13.1 99 1009.9 4.5 N 7.6 1.5 8.4
14:05 13.2 13.1 99 1009.8 9.2 NW 9.2 1.5 8.4
14:06 13.2 13.1 99 1009.8 6.0 NW 9.2 1.5 8.4
14:07 13.3 13.2 99 1009.7 6.9 WNW 9.2 0.8 8.4
14:08 13.2 13.1 99 1009.8 6.9 SW 9.2 0.0 8.4
14:10 13.3 13.2 99 1009.8 3.1 W 9.2 0.8 8.5
14:11 13.3 13.2 99 1009.8 3.1 NE 9.2 0.8 8.5
14:12 13.3 13.2 99 1009.9 5.4 NE 9.2 0.8 8.5
14:13 13.3 13.2 99 1009.8 6.0 N 9.2 0.8 8.5
14:14 13.3 13.2 99 1009.8 7.6 N 9.2 1.5 8.6
14:15 13.3 13.2 99 1009.8 10.7 NNE 10.7 0.8 8.6
14:16 13.3 13.2 99 1009.8 5.4 N 10.7 0.8 8.6
14:17 13.3 13.2 99 1010.0 7.6 NW 10.7 0.8 8.6
14:18 13.3 13.2 99 1010.0 3.1 SE 10.7 0.8 8.6
14:19 13.3 13.2 99 1009.9 5.4 SE 10.7 0.8 8.6
14:20 13.3 13.2 99 1010.0 3.8 N 10.7 0.8 8.6
14:21 13.3 13.2 99 1009.8 6.9 S 10.7 0.8 8.6
14:22 13.3 13.2 99 1009.8 7.6 N 10.7 0.8 8.7
14:23 13.3 13.2 99 1009.8 9.8 ESE 10.7 1.5 8.7
14:24 13.3 13.2 99 1009.8 10.7 NE 10.7 0.8 8.7
14:25 13.3 13.2 99 1009.8 9.2 NE 10.7 0.8 8.7
14:26 13.3 13.2 99 1009.9 9.2 NE 10.7 0.8 8.7
14:27 13.3 13.2 99 1009.8 7.6 NE 10.7 0.8 8.7
14:28 13.4 13.3 99 1009.7 5.4 NE 10.7 0.0 8.7
14:29 13.4 13.3 99 1009.8 7.6 NE 10.7 0.0 8.7
14:30 13.4 13.3 99 1009.8 6.9 SW 10.7 0.0 8.7
14:31 13.4 13.3 99 1009.7 6.9 NE 10.7 0.0 8.8
14:32 13.4 13.3 99 1009.8 5.4 W 10.7 0.8 8.8
14:33 13.4 13.3 99 1009.7 4.5 N 10.7 0.8 8.8
14:34 13.4 13.3 99 1009.8 6.0 NE 10.7 0.8 8.8
14:35 13.5 13.4 99 1009.7 6.0 NE 9.2 0.8 8.8
14:36 13.5 13.4 99 1009.8 5.4 E 9.2 1.5 8.8
14:37 13.5 13.4 99 1009.8 5.4 NE 7.6 0.8 8.8
14:38 13.6 13.5 99 1009.7 6.9 NE 7.6 1.5 8.9
14:40 13.6 13.5 99 1009.6 6.0 NE 7.6 1.5 8.9
14:41 13.7 13.6 99 1009.6 6.0 NE 6.9 1.5 8.9
14:42 13.7 13.6 99 1009.7 6.0 NE 6.9 1.5 8.9
14:43 13.7 13.6 99 1009.8 6.0 NE 6.9 1.5 9.0
14:44 13.7 13.6 99 1009.6 5.4 N 6.9 1.5 9.1
14:45 13.8 13.7 99 1009.6 5.4 E 6.9 2.3 9.1
14:46 13.8 13.7 99 1009.6 6.0 N 6.9 2.3 9.1
14:47 13.8 13.7 99 1009.6 5.4 N 6.9 2.3 9.1
14:48 13.8 13.7 99 1009.6 4.5 NE 6.9 2.3 9.2
14:49 13.9 13.8 99 1009.6 4.5 NE 6.0 3.0 9.3
14:50 13.9 13.8 99 1009.5 3.8 NNE 6.0 2.3 9.3
14:51 13.9 13.8 99 1009.6 3.1 N 6.0 2.3 9.3
14:52 13.9 13.8 99 1009.6 2.2 E 6.0 2.3 9.4
14:53 14.0 13.9 99 1009.3 1.6 W 6.0 2.3 9.4
14:54 14.0 13.9 99 1009.5 0.7 E 6.0 1.5 9.4
14:55 14.0 13.9 99 1009.6 0.0 N 6.0 2.3 9.4
14:56 14.0 13.9 99 1009.5 0.7 SW 5.4 1.5 9.4
14:57 14.0 13.9 99 1009.4 0.7 N 4.5 1.5 9.5
14:58 14.0 13.9 99 1009.5 0.7 E 4.5 1.5 9.5
14:59 14.1 14.0 99 1009.6 0.0 N 4.5 1.5 9.5
15:00 14.1 14.0 99 1009.4 0.0 NE 3.8 0.8 9.5
15:01 14.1 14.0 99 1009.4 0.0 SW 3.1 0.8 9.6
15:02 14.1 14.0 99 1009.3 0.7 SW 1.6 1.5 9.6
15:03 14.2 14.1 99 1009.4 2.2 SW 2.2 0.8 9.6
15:04 14.2 14.1 99 1009.3 1.6 SW 2.2 0.8 9.6
15:05 14.2 14.1 99 1009.5 0.0 N 2.2 1.5 9.6
15:06 14.2 14.1 99 1009.3 0.0 N 2.2 1.5 9.6
15:07 14.2 14.1 99 1009.4 0.0 N 2.2 0.8 9.6
15:08 14.3 14.2 99 1009.4 1.6 SW 2.2 0.8 9.6
15:09 14.3 14.2 99 1009.5 0.7 W 2.2 1.5 9.7
15:10 14.3 14.2 99 1009.3 0.0 NE 2.2 0.8 9.7
15:11 14.3 14.2 99 1009.3 0.0 W 2.2 0.8 9.7
15:12 14.4 14.3 99 1009.4 0.0 SW 2.2 0.8 9.8
15:13 14.4 14.3 99 1009.4 0.0 SE 2.2 1.5 9.8
15:14 14.4 14.3 99 1009.3 0.0 NE 1.6 0.8 9.8
15:15 14.4 14.3 99 1009.4 0.0 NE 1.6 1.5 9.8
15:16 14.4 14.3 99 1009.4 0.0 NE 1.6 2.3 9.9
15:17 14.5 14.4 99 1009.4 0.0 NE 1.6 2.3 9.9
15:18 14.5 14.4 99 1009.5 0.0 N 1.6 2.3 10.0
15:19 14.5 14.4 99 1009.3 0.0 N 1.6 2.3 10.0
15:21 14.5 14.4 99 1009.3 0.0 N 0.0 1.5 10.0
15:22 14.5 14.4 99 1009.4 0.0 NE 0.0 1.5 10.0
15:23 14.5 14.4 99 1009.4 0.0 SE 0.0 0.8 10.0
15:24 14.6 14.5 99 1009.6 0.7 ENE 0.7 0.8 10.0
15:25 14.6 14.5 99 1009.3 0.7 W 0.7 0.8 10.0
15:26 14.6 14.5 99 1009.4 0.0 SW 0.7 0.0 10.0
15:27 14.6 14.5 99 1009.4 0.0 W 0.7 0.0 10.0
15:28 14.7 14.6 99 1009.3 5.4 SE 5.4 0.0 10.0
15:29 14.7 14.6 99 1009.4 7.6 S 7.6 0.8 10.1
15:31 14.8 14.7 99 1009.4 6.9 SW 9.8 0.8 10.1
15:32 15.0 14.9 99 1009.5 13.6 SW 13.6 0.8 10.1
15:33 15.2 15.1 99 1009.4 15.9 WNW 15.9 0.8 10.1
15:34 15.3 15.2 99 1009.4 10.7 SW 15.9 0.0 10.1
15:35 15.4 15.3 99 1009.3 12.1 WSW 15.9 0.0 10.1
15:36 15.5 15.4 99 1009.4 16.8 SW 16.8 0.0 10.1
15:37 15.7 15.6 99 1009.6 12.1 S 16.8 0.0 10.1
15:38 15.8 15.7 99 1009.3 18.3 SW 18.3 0.0 10.1
15:39 15.9 15.8 99 1009.4 11.4 S 18.3 0.0 10.1
15:40 16.0 15.9 99 1009.4 10.7 SW 18.3 0.0 10.1
15:41 16.1 16.0 99 1009.4 10.7 SSW 18.3 0.0 10.1
15:42 16.2 16.1 99 1009.4 14.5 SW 18.3 0.0 10.1
15:43 16.3 16.2 99 1009.3 16.8 SW 18.3 0.0 10.1
15:44 16.3 16.2 99 1009.3 14.5 WSW 18.3 0.0 10.1
15:45 16.4 16.3 99 1009.3 11.4 S 18.3 0.0 10.1
15:46 16.4 16.3 99 1009.3 13.0 SW 18.3 0.0 10.1
15:47 16.4 16.3 99 1009.3 12.1 SW 18.3 0.0 10.1
15:48 16.5 16.4 99 1009.3 10.7 SW 18.3 0.0 10.1
15:50 16.5 16.4 99 1009.4 13.0 S 16.8 0.0 10.1
15:51 16.6 16.5 99 1009.4 15.9 S 16.8 0.0 10.1
15:52 16.6 16.5 99 1009.3 16.8 S 20.6 0.0 10.1
15:53 16.6 16.5 99 1009.2 15.2 SW 20.6 0.0 10.1
15:54 16.6 16.5 99 1009.6 15.2 SSW 20.6 0.0 10.1
15:55 16.6 16.5 99 1009.3 16.8 S 20.6 0.0 10.1
15:56 16.7 16.6 99 1009.3 17.4 SW 20.6 0.0 10.1
15:57 16.7 16.6 99 1009.3 16.8 SW 20.6 0.0 10.1
15:58 16.7 16.6 99 1009.4 18.3 SE 20.6 0.0 10.1
15:59 16.7 16.6 99 1009.3 19.0 SSW 20.6 0.0 10.1
16:00 16.7 16.6 99 1009.2 23.5 SW 23.5 0.0 10.1
16:01 16.7 16.6 99 1009.1 23.5 SW 23.5 0.0 10.1
16:02 16.7 16.6 99 1009.3 17.4 SW 23.5 0.0 10.1
16:03 16.7 16.6 99 1009.2 18.3 SW 23.5 0.0 10.1
16:04 16.7 16.6 99 1009.2 13.0 SW 23.5 0.0 10.1
16:05 16.7 16.6 99 1009.4 17.4 SW 23.5 0.0 10.1
16:06 16.8 16.7 99 1009.3 16.8 S 23.5 0.8 10.1
16:07 16.8 16.7 99 1009.2 23.5 SW 23.5 0.8 10.1
16:08 16.8 16.7 99 1009.3 20.6 SW 23.5 0.8 10.1
16:09 16.8 16.7 99 1009.3 19.7 SW 23.5 0.8 10.1
16:10 16.8 16.7 99 1009.2 14.5 SW 23.5 0.8 10.1
16:11 16.8 16.7 99 1009.3 13.6 S 23.5 0.0 10.1
16:12 16.8 16.7 99 1009.3 15.2 S 23.5 0.0 10.1
16:13 16.8 16.7 99 1009.3 19.0 SW 23.5 0.0 10.1
16:14 16.8 16.7 99 1009.1 14.5 SW 23.5 0.0 10.1
16:15 16.8 16.7 99 1009.1 19.7 SW 23.5 0.0 10.1
16:16 16.8 16.7 99 1009.2 19.0 SW 23.5 0.0 10.1
16:17 16.9 16.8 99 1009.1 19.0 SW 23.5 0.0 10.1
16:18 16.9 16.8 99 1009.1 15.2 S 22.1 0.0 10.1
16:20 16.9 16.8 99 1009.2 15.2 S 22.1 0.0 10.1
16:21 16.9 16.8 99 1009.1 13.6 S 19.7 0.0 10.1
16:22 16.9 16.8 99 1009.2 12.1 SE 19.7 0.0 10.1
16:23 16.9 16.8 99 1009.2 15.2 SW 19.7 0.0 10.1
16:24 16.9 16.8 99 1009.0 16.8 SW 19.7 0.8 10.2
16:25 16.9 16.8 99 1009.1 19.7 S 19.7 0.8 10.2
16:26 16.9 16.8 99 1009.0 21.3 SW 21.3 0.8 10.2
16:27 16.9 16.8 99 1009.2 17.4 SW 21.3 0.8 10.2
16:28 16.9 16.8 99 1009.1 14.5 SW 21.3 0.8 10.2
16:29 16.9 16.8 99 1009.0 15.9 NW 21.3 0.0 10.2
16:30 16.9 16.8 99 1009.1 19.0 W 21.3 0.0 10.2
16:31 16.9 16.8 99 1009.0 15.2 SW 21.3 0.0 10.2
16:32 16.9 16.8 99 1009.1 15.2 SW 21.3 0.0 10.2
16:33 16.9 16.8 99 1009.0 16.8 SW 21.3 0.0 10.2
16:34 16.9 16.8 99 1009.1 15.2 S 21.3 0.0 10.2
16:35 16.9 16.8 99 1009.1 16.8 W 21.3 0.0 10.2
16:36 16.9 16.8 99 1009.3 17.4 SW 19.0 0.0 10.2
16:37 16.9 16.8 99 1009.0 20.6 SW 20.6 0.0 10.2
16:38 16.9 16.8 99 1009.3 15.9 S 20.6 0.0 10.2
16:39 16.9 16.8 99 1009.3 20.6 SW 20.6 0.0 10.2
16:40 16.9 16.8 99 1009.2 20.6 S 20.6 0.0 10.2
16:41 16.9 16.8 99 1009.2 18.3 SW 20.6 0.0 10.2
16:42 16.9 16.8 99 1009.0 15.2 SW 20.6 0.0 10.2
16:43 16.9 16.8 99 1009.0 17.4 SW 20.6 0.0 10.2
16:44 16.9 16.8 99 1009.0 19.7 SW 20.6 0.0 10.2
16:45 16.9 16.8 99 1009.1 14.5 SW 20.6 0.0 10.2
16:46 16.9 16.8 99 1009.0 14.5 SW 20.6 0.0 10.2
16:47 16.9 16.8 99 1009.0 17.4 S 20.6 0.0 10.2
16:48 16.9 16.8 99 1008.9 16.8 S 20.6 0.0 10.2
16:49 16.9 16.8 99 1009.0 15.9 SW 20.6 0.0 10.2
16:51 17.0 16.9 99 1009.0 22.1 SSW 22.1 0.0 10.2
16:52 17.0 16.9 99 1008.8 19.0 SW 22.1 0.0 10.2
16:53 17.0 16.9 99 1008.8 17.4 SW 22.1 0.0 10.2
16:54 17.0 16.9 99 1008.8 18.3 SW 22.1 0.0 10.2
16:55 16.9 16.8 99 1008.8 26.6 SW 26.6 0.0 10.2
16:56 17.0 16.9 99 1009.0 17.4 N 26.6 0.0 10.2
16:57 17.0 16.9 99 1009.0 17.4 SW 26.6 0.0 10.2
16:58 17.0 16.9 99 1008.9 17.4 NW 26.6 0.0 10.2
16:59 17.0 16.9 99 1009.0 15.2 SSW 26.6 0.0 10.2
17:00 17.0 16.9 99 1008.9 17.4 S 26.6 0.0 10.2
17:01 17.0 16.9 99 1009.1 17.4 S 26.6 0.0 10.2
17:02 17.0 16.9 99 1008.8 21.3 WSW 26.6 0.0 10.2
17:03 17.0 16.9 99 1008.9 13.0 S 26.6 0.0 10.2
17:04 17.0 16.9 99 1008.9 15.2 SW 26.6 0.0 10.2
17:05 17.0 16.9 99 1008.8 21.3 SW 21.3 0.0 10.2
17:06 17.0 16.9 99 1008.8 24.4 S 24.4 0.0 10.2
17:07 16.9 16.8 99 1008.9 18.3 SE 24.4 0.0 10.2
17:08 17.0 16.9 99 1008.7 20.6 SW 24.4 0.0 10.2
17:09 17.0 16.9 99 1008.8 16.8 SW 24.4 0.0 10.2
17:10 17.0 16.9 99 1008.7 15.9 NW 24.4 0.0 10.2
17:11 17.0 16.9 99 1008.8 17.4 S 24.4 0.0 10.2
17:12 17.0 16.9 99 1008.7 19.0 SE 24.4 0.0 10.2
17:13 17.0 16.9 99 1008.7 15.2 SW 24.4 0.0 10.2
17:14 17.0 16.9 99 1008.7 19.7 SW 24.4 0.0 10.2
17:15 17.0 16.9 99 1008.8 20.6 SW 24.4 0.0 10.2
17:16 17.0 16.9 99 1008.5 19.0 SW 24.4 0.0 10.2
17:17 17.0 16.9 99 1008.6 19.7 SW 20.6 0.0 10.2
17:18 17.0 16.9 99 1008.5 19.0 SW 20.6 0.0 10.2
17:19 17.0 16.9 99 1008.6 18.3 SW 20.6 0.0 10.2
17:20 16.9 16.8 99 1008.6 21.3 SW 21.3 0.0 10.2
17:21 16.9 16.8 99 1008.7 19.7 SW 21.3 0.0 10.2
17:22 16.9 16.8 99 1008.7 14.5 SW 21.3 0.0 10.2
17:23 16.9 16.8 99 1008.8 23.5 SW 23.5 0.0 10.2
17:24 17.0 16.9 99 1008.8 14.5 SW 23.5 0.0 10.2
17:25 17.0 16.9 99 1008.9 17.4 SW 23.5 0.0 10.2
17:26 17.0 16.9 99 1009.0 22.8 S 23.5 0.0 10.2
17:28 17.0 16.9 99 1008.9 22.8 SW 29.8 0.0 10.2
17:29 16.9 16.8 99 1008.8 26.6 SW 29.8 0.0 10.2
17:30 16.9 16.8 99 1008.8 17.4 SW 29.8 0.0 10.2
17:31 17.0 16.9 99 1008.8 15.9 S 29.8 0.0 10.2
17:32 17.0 16.9 99 1008.6 16.8 SW 29.8 0.0 10.2
17:33 17.0 16.9 99 1008.8 18.3 SW 29.8 0.0 10.2
17:34 17.0 16.9 99 1008.8 19.0 SW 29.8 0.0 10.2
17:35 17.0 16.9 99 1008.9 19.7 S 29.8 0.0 10.2
17:36 16.9 16.8 99 1008.8 14.5 S 29.8 0.0 10.2
17:37 16.9 16.8 99 1008.9 14.5 S 29.8 0.0 10.2
17:38 16.9 16.8 99 1009.0 20.6 SW 26.6 0.0 10.2
17:39 16.9 16.8 99 1008.9 14.5 SW 20.6 0.0 10.2
17:40 16.9 16.8 99 1008.9 15.2 S 20.6 0.0 10.2
17:41 16.9 16.8 99 1008.8 17.4 SW 20.6 0.0 10.2
17:42 16.9 16.8 99 1009.0 19.0 SW 21.3 0.0 10.2
17:43 16.9 16.8 99 1008.8 17.4 S 21.3 0.0 10.2
17:44 16.9 16.8 99 1009.0 17.4 W 21.3 0.0 10.2
17:45 16.8 16.7 99 1008.8 16.8 SW 21.3 0.0 10.2
17:46 16.9 16.8 99 1009.0 19.0 S 21.3 0.0 10.2
17:47 16.8 16.7 99 1009.0 12.1 S 21.3 0.0 10.2
17:48 16.8 16.7 99 1008.9 18.3 WSW 21.3 0.0 10.2
17:49 16.8 16.7 99 1008.9 19.7 S 21.3 0.0 10.2
17:50 16.8 16.7 99 1009.0 14.5 SW 21.3 0.0 10.2
17:51 16.8 16.7 99 1008.9 14.5 S 21.3 0.0 10.2
17:52 16.8 16.7 99 1009.2 16.8 WSW 21.3 0.0 10.2
17:53 16.8 16.7 99 1009.2 11.4 SW 20.6 0.0 10.2
17:54 16.8 16.7 99 1009.3 14.5 SE 20.6 0.0 10.2
17:55 16.8 16.7 99 1009.4 16.8 SSW 20.6 0.0 10.2
17:57 16.8 16.7 99 1009.3 22.8 S 22.8 0.0 10.2
17:58 16.8 16.7 99 1009.3 16.8 SW 22.8 0.0 10.2
17:59 16.8 16.7 99 1009.2 15.9 NW 22.8 0.0 10.2
18:00 16.8 16.7 99 1009.1 14.5 S 22.8 0.0 10.2
18:01 16.8 16.7 99 1009.2 14.5 S 22.8 0.0 10.2
18:02 16.8 16.7 99 1009.2 18.3 SW 22.8 0.0 10.2
18:03 16.8 16.7 99 1009.3 17.4 SW 22.8 0.0 10.2
18:04 16.8 16.7 99 1009.3 10.7 SE 22.8 0.0 10.2
18:05 16.8 16.7 99 1009.3 19.0 SW 22.8 0.0 10.2
18:06 16.8 16.7 99 1009.3 20.6 S 22.8 0.0 10.2
18:07 16.8 16.7 99 1009.5 20.6 S 20.6 0.0 10.2
18:08 16.8 16.7 99 1009.3 13.0 SW 20.6 0.0 10.2
18:09 16.8 16.7 99 1009.4 15.2 SW 21.3 0.0 10.3
18:10 16.8 16.7 99 1009.3 17.4 NW 21.3 0.8 10.3
18:11 16.8 16.7 99 1009.3 15.9 SSE 21.3 0.8 10.3
18:12 16.8 16.7 99 1009.3 21.3 SW 21.3 0.8 10.3
18:13 16.8 16.7 99 1009.3 21.3 SW 21.3 0.8 10.3
18:14 16.8 16.7 99 1009.3 16.8 SW 21.3 0.8 10.3
18:15 16.8 16.7 99 1009.3 15.9 SW 21.3 0.0 10.3
18:16 16.8 16.7 99 1009.4 13.6 SW 21.3 0.0 10.3
18:17 16.8 16.7 99 1009.4 16.8 S 21.3 0.0 10.3
18:18 16.8 16.7 99 1009.3 13.0 S 21.3 0.0 10.3
18:19 16.8 16.7 99 1009.3 13.0 S 21.3 0.0 10.3
18:20 16.8 16.7 99 1009.3 14.5 NW 21.3 0.8 10.3
18:21 16.8 16.7 99 1009.4 13.0 SW 21.3 0.8 10.3
18:22 16.8 16.7 99 1009.2 12.1 N 21.3 0.8 10.3
18:23 16.8 16.7 99 1009.2 18.3 SW 21.3 0.8 10.3
18:24 16.8 16.7 99 1009.3 17.4 SW 21.3 0.8 10.3
18:27 16.8 16.7 99 1009.3 13.0 S 20.6 0.0 10.3
18:28 16.8 16.7 99 1009.3 14.5 S 20.6 0.0 10.3
18:29 16.8 16.7 99 1009.2 13.0 S 20.6 0.0 10.3
18:30 16.8 16.7 99 1009.3 13.6 S 20.6 0.0 10.3
18:31 16.8 16.7 99 1009.4 19.0 S 20.6 0.0 10.3
18:32 16.8 16.7 99 1009.3 15.9 S 20.6 0.0 10.3
18:33 16.8 16.7 99 1009.4 17.4 S 20.6 0.0 10.3
18:34 16.8 16.7 99 1009.2 13.0 SW 19.0 0.0 10.3
18:35 16.8 16.7 99 1009.2 15.2 SW 19.0 0.0 10.3
18:36 16.9 16.8 99 1009.2 20.6 S 21.3 0.8 10.4
18:37 16.9 16.8 99 1009.4 16.8 S 21.3 0.8 10.4
18:38 16.9 16.8 99 1009.3 22.8 S 22.8 0.8 10.4
18:39 16.9 16.8 99 1009.1 14.5 SW 22.8 0.8 10.4
18:40 16.9 16.8 99 1009.3 12.1 SE 22.8 0.8 10.4
18:41 16.9 16.8 99 1009.2 13.0 SW 22.8 0.0 10.4
18:42 16.9 16.8 99 1009.3 15.9 SW 22.8 0.0 10.4
18:43 16.9 16.8 99 1009.3 22.1 SW 22.8 0.0 10.4
18:44 16.9 16.8 99 1009.3 13.0 SW 22.8 0.0 10.4
18:45 16.9 16.8 99 1009.1 21.3 SW 22.8 0.0 10.4
18:46 16.9 16.8 99 1009.2 19.7 SE 22.8 0.0 10.4
18:47 16.9 16.8 99 1009.2 19.0 S 22.8 0.0 10.4
18:48 16.9 16.8 99 1009.2 15.9 SW 22.1 0.0 10.4
18:49 16.9 16.8 99 1009.4 17.4 S 22.1 0.0 10.4
18:51 16.9 16.8 99 1009.3 18.3 SW 22.1 0.0 10.4
18:52 16.9 16.8 99 1009.3 17.4 S 22.1 0.0 10.4
18:53 16.9 16.8 99 1009.3 16.8 SW 22.1 0.0 10.4
18:54 16.9 16.8 99 1009.4 19.0 SW 21.3 0.0 10.4
18:55 16.9 16.8 99 1009.4 21.3 SW 21.3 0.0 10.4
18:57 16.9 16.8 99 1009.3 15.9 SW 21.3 0.0 10.4
18:58 16.9 16.8 99 1009.3 21.3 SW 21.3 0.0 10.4
18:59 16.9 16.8 99 1009.3 19.7 SW 21.3 0.0 10.4
19:00 16.9 16.8 99 1009.3 19.7 SW 21.3 0.0 10.4
19:01 16.9 16.8 99 1009.3 19.7 SW 21.3 0.0 10.4
19:02 16.9 16.8 99 1009.2 21.3 WSW 21.3 0.0 10.4
19:03 16.9 16.8 99 1009.4 18.3 SW 21.3 0.0 10.4
19:04 16.9 16.8 99 1009.2 20.6 NNW 21.3 0.0 10.4
19:05 16.9 16.8 99 1009.3 16.8 SW 21.3 0.0 10.4
19:06 16.9 16.8 99 1009.4 14.5 SW 21.3 0.0 10.4
19:07 16.9 16.8 99 1009.5 20.6 SW 21.3 0.8 10.5
19:08 16.9 16.8 99 1009.4 19.7 S 21.3 0.8 10.5
19:09 16.9 16.8 99 1009.3 18.3 SW 21.3 0.8 10.5
19:10 16.9 16.8 99 1009.4 16.8 SW 21.3 0.8 10.5
19:12 16.9 16.8 99 1009.4 16.8 SW 21.3 0.0 10.5
19:13 16.9 16.8 99 1009.3 19.0 SW 21.3 0.0 10.5
19:14 16.9 16.8 99 1009.3 19.0 SW 20.6 0.0 10.5
19:15 17.1 17.0 99 1009.5 19.0 WNW 20.6 0.0 10.5
19:16 16.9 16.8 99 1009.5 24.4 SW 24.4 0.0 10.5
19:17 16.9 16.8 99 1009.6 19.0 SW 24.4 0.0 10.5
19:18 16.9 16.8 99 1009.6 19.0 SW 24.4 0.0 10.5
19:19 16.9 16.8 99 1009.5 25.1 SW 25.1 0.0 10.5
19:20 16.9 16.8 99 1009.3 19.7 S 25.1 0.0 10.5
19:21 16.9 16.8 99 1009.4 22.1 S 25.1 0.0 10.5
19:22 16.9 16.8 99 1009.5 20.6 NNW 25.1 0.0 10.5
19:23 16.8 16.7 99 1009.7 20.6 S 25.1 0.0 10.5
19:24 16.9 16.8 99 1009.3 21.3 W 25.1 0.0 10.5
19:26 16.8 16.7 99 1009.6 15.9 SW 25.1 0.0 10.5
19:27 16.8 16.7 99 1009.6 15.9 NE 25.1 0.0 10.5
19:28 16.8 16.7 99 1009.8 19.0 SW 25.1 0.0 10.5
19:29 16.8 16.7 99 1009.8 17.4 SW 25.1 0.0 10.5
19:30 16.8 16.7 99 1009.7 19.0 S 22.8 0.0 10.5
19:31 16.8 16.7 99 1009.8 15.2 W 22.8 0.0 10.5
19:32 16.8 16.7 99 1009.8 21.3 SW 22.8 0.0 10.5
19:33 16.7 16.6 99 1009.9 20.6 N 22.8 0.0 10.5
19:34 16.7 16.6 99 1009.6 17.4 SW 22.8 0.0 10.5
19:35 16.7 16.6 99 1009.8 17.4 NNW 21.3 0.0 10.5
19:36 16.7 16.6 99 1009.9 15.9 SW 21.3 0.0 10.5
19:37 16.7 16.6 99 1009.7 15.9 NW 21.3 0.0 10.5
19:38 16.7 16.6 99 1009.7 12.1 SE 21.3 0.0 10.5
19:39 16.7 16.6 99 1009.8 14.5 SW 21.3 0.0 10.5
19:40 16.6 16.5 99 1009.7 13.6 S 21.3 0.0 10.5
19:41 16.6 16.5 99 1009.7 17.4 SW 21.3 0.0 10.5
19:42 16.6 16.5 99 1009.8 15.9 NW 20.6 0.0 10.5
19:43 16.6 16.5 99 1009.7 13.0 S 20.6 0.0 10.5
19:44 16.6 16.5 99 1009.8 20.6 SW 20.6 0.0 10.5
19:45 16.6 16.5 99 1009.7 13.6 SW 20.6 0.0 10.5
19:46 16.5 16.4 99 1009.8 14.5 SW 20.6 0.0 10.5
19:47 16.5 16.4 99 1009.8 14.5 W 20.6 0.0 10.5
19:48 16.5 16.4 99 1009.8 13.6 SW 20.6 0.0 10.5
19:49 16.5 16.4 99 1009.8 12.1 SW 20.6 0.0 10.5
19:50 16.5 16.4 99 1009.7 15.9 S 20.6 0.0 10.5
19:51 16.5 16.4 99 1009.9 13.0 S 20.6 0.0 10.5
19:52 16.5 16.4 99 1009.8 11.4 SW 20.6 0.0 10.5
19:53 16.5 16.4 99 1009.8 10.7 SW 20.6 0.0 10.5
19:54 16.4 16.3 99 1009.8 9.8 SW 20.6 0.0 10.5
19:55 16.4 16.3 99 1010.0 9.8 WSW 15.9 0.0 10.5
19:57 16.4 16.3 99 1009.8 16.8 SW 16.8 0.0 10.5
19:58 16.4 16.3 99 1009.9 15.9 N 16.8 0.0 10.5
19:59 16.3 16.2 99 1010.1 9.2 WSW 16.8 0.0 10.5
20:00 16.3 16.2 99 1010.1 14.5 SW 16.8 0.0 10.5
20:01 16.3 16.2 99 1010.0 14.5 SW 16.8 0.0 10.5
20:02 16.3 16.2 99 1010.1 12.1 SW 16.8 0.0 10.5
20:03 16.2 16.1 99 1010.1 11.4 SW 16.8 0.0 10.5
20:05 16.2 16.1 99 1010.2 12.1 SE 16.8 0.0 10.5
20:06 16.1 16.0 99 1010.2 13.6 W 16.8 0.0 10.5
20:07 16.1 16.0 99 1010.1 16.8 SW 16.8 0.0 10.5
20:08 16.1 16.0 99 1010.1 14.5 N 16.8 0.0 10.5
20:09 16.1 16.0 99 1010.5 11.4 S 16.8 0.0 10.5
20:10 16.0 15.9 99 1010.4 13.0 SW 16.8 0.0 10.5
20:11 16.0 15.9 99 1010.3 12.1 SW 16.8 0.0 10.5
20:12 16.0 15.9 99 1010.3 9.8 SW 16.8 0.0 10.5
20:13 16.0 15.9 99 1010.3 7.6 SW 16.8 0.0 10.5
20:14 16.0 15.9 99 1010.3 8.3 NW 16.8 0.0 10.5
20:15 16.0 15.9 99 1010.4 8.3 SW 16.8 0.0 10.5
20:16 16.0 15.9 99 1010.5 10.7 SW 16.8 0.0 10.5
20:17 15.9 15.8 99 1010.6 10.7 SW 16.8 0.0 10.5
20:18 15.9 15.8 99 1010.4 12.1 SW 13.0 0.0 10.5
20:19 15.9 15.8 99 1010.6 12.1 SW 13.0 0.0 10.5
20:20 15.9 15.8 99 1010.7 11.4 SW 13.0 0.0 10.5
20:21 15.9 15.8 99 1010.5 7.6 W 12.1 0.0 10.5
20:22 15.9 15.8 99 1010.6 9.2 SW 12.1 0.0 10.5
20:23 15.8 15.7 99 1010.6 9.8 SW 12.1 0.0 10.5
20:24 15.8 15.7 99 1010.7 8.3 NW 12.1 0.0 10.5
20:25 15.8 15.7 99 1010.6 7.6 SW 12.1 0.0 10.5
20:26 15.8 15.7 99 1010.8 12.1 SW 12.1 0.0 10.5
20:27 15.8 15.7 99 1010.8 10.7 SW 12.1 0.0 10.5
20:28 15.8 15.7 99 1010.8 9.8 SSW 12.1 0.0 10.5
20:29 15.8 15.7 99 1010.7 9.8 SW 12.1 0.0 10.5
20:30 15.8 15.7 99 1010.8 9.2 SW 12.1 0.0 10.5
20:31 15.7 15.6 99 1010.8 6.0 SW 12.1 0.0 10.5
20:32 15.7 15.6 99 1010.8 10.7 S 12.1 0.0 10.5
20:33 15.7 15.6 99 1010.8 6.9 W 12.1 0.0 10.5
20:34 15.7 15.6 99 1010.7 8.3 SW 12.1 0.0 10.5
20:35 15.7 15.6 99 1010.7 9.8 S 12.1 0.0 10.5
20:36 15.6 15.5 99 1010.8 10.7 S 12.1 0.0 10.5
20:37 15.6 15.5 99 1010.8 8.3 WSW 11.4 0.0 10.5
20:38 15.6 15.5 99 1010.9 7.6 SW 11.4 0.0 10.5
20:39 15.6 15.5 99 1010.8 7.6 SW 10.7 0.0 10.5
20:40 15.6 15.5 99 1011.0 11.4 S 11.4 0.0 10.5
20:41 15.6 15.5 99 1010.9 7.6 SW 11.4 0.0 10.5
20:42 15.6 15.5 99 1010.8 8.3 SW 11.4 0.0 10.5
20:43 15.5 15.4 99 1011.0 6.9 WSW 11.4 0.0 10.5
20:44 15.5 15.4 99 1011.0 6.9 W 11.4 0.0 10.5
20:45 15.5 15.4 99 1011.0 6.9 W 11.4 0.0 10.5
20:46 15.5 15.4 99 1011.0 9.2 NW 11.4 0.0 10.5
20:47 15.5 15.4 99 1011.1 8.3 W 12.1 0.0 10.5
20:48 15.4 15.3 99 1011.0 8.3 SW 12.1 0.0 10.5
20:49 15.4 15.3 99 1011.1 8.3 SW 12.1 0.0 10.5
20:50 15.4 15.3 99 1011.2 6.0 SW 12.1 0.0 10.5
20:51 15.4 15.3 99 1011.1 6.0 WSW 12.1 0.0 10.5
20:52 15.3 15.2 99 1011.1 4.5 SW 12.1 0.0 10.5
20:53 15.3 15.2 99 1011.2 6.9 NW 12.1 0.0 10.5
20:54 15.3 15.2 99 1011.2 6.9 SW 12.1 0.0 10.5
20:55 15.3 15.2 99 1011.1 13.0 S 13.0 0.0 10.5
20:56 15.2 15.1 99 1011.3 10.7 WSW 13.0 0.0 10.5
20:57 15.2 15.1 99 1011.3 9.2 SW 13.0 0.0 10.5
20:58 15.2 15.1 99 1011.2 8.3 W 13.0 0.0 10.5
20:59 15.2 15.1 99 1011.0 6.0 W 13.0 0.0 10.5
21:00 15.2 15.1 99 1011.0 6.9 SW 13.0 0.0 10.5
21:01 15.2 15.1 99 1011.2 6.9 SW 13.0 0.0 10.5
21:03 15.2 15.1 99 1011.3 6.9 SW 13.0 0.0 10.5
21:04 15.2 15.1 99 1011.2 6.9 SW 13.0 0.0 10.5
21:05 15.2 15.1 99 1011.3 6.9 SW 13.0 0.0 10.5
21:06 15.0 14.9 99 1011.3 8.3 NW 10.7 0.0 10.5
21:07 15.0 14.9 99 1011.2 7.6 SW 9.2 0.0 10.5
21:08 14.9 14.8 99 1011.1 9.2 NW 9.2 0.0 10.5
21:09 14.9 14.8 99 1011.3 9.2 NW 9.2 0.0 10.5
21:10 14.9 14.8 99 1011.2 9.2 SW 9.2 0.0 10.5
21:11 14.8 14.7 99 1011.4 6.0 SW 9.2 0.0 10.5
21:12 14.8 14.7 99 1011.2 4.5 SSW 9.2 0.0 10.5
21:13 14.8 14.7 99 1011.2 8.3 SW 9.2 0.0 10.5
21:14 14.7 14.6 99 1011.3 6.0 W 9.2 0.0 10.5
21:15 14.7 14.6 99 1011.2 7.6 W 9.2 0.0 10.5
21:16 14.7 14.6 99 1011.3 6.0 W 9.2 0.0 10.5
21:17 14.7 14.6 99 1011.4 6.0 N 9.2 0.0 10.5
21:18 14.6 14.5 99 1011.3 6.9 WSW 9.2 0.0 10.5
21:19 14.6 14.5 99 1011.1 7.6 SW 9.2 0.0 10.5
21:20 14.6 14.5 99 1011.3 9.8 SW 9.8 0.0 10.5
21:21 14.5 14.4 99 1011.3 9.8 W 9.8 0.0 10.5
21:22 14.5 14.4 99 1011.3 9.2 SW 9.8 0.0 10.5
21:23 14.5 14.4 99 1011.3 9.2 W 9.8 0.0 10.5
21:24 14.5 14.4 99 1011.4 8.3 W 9.8 0.0 10.5
21:25 14.4 14.3 99 1011.5 8.3 NW 9.8 0.0 10.5
21:26 14.4 14.3 99 1011.4 6.9 SW 9.8 0.0 10.5
21:27 14.4 14.3 99 1011.3 6.0 SW 9.8 0.0 10.5
21:28 14.4 14.3 99 1011.3 7.6 SW 9.8 0.0 10.5
21:29 14.3 14.2 99 1011.4 6.0 S 9.8 0.0 10.5
21:31 14.3 14.2 99 1011.4 7.6 W 9.8 0.0 10.5
21:32 14.3 14.2 99 1011.2 9.2 NW 9.8 0.0 10.5
21:33 14.3 14.2 99 1011.4 8.3 WSW 9.2 0.0 10.5
21:34 14.2 14.1 99 1011.2 9.8 SW 9.8 0.0 10.5
21:35 14.2 14.1 99 1011.3 6.9 WSW 9.8 0.0 10.5
21:36 14.2 14.1 99 1011.3 9.8 SW 9.8 0.0 10.5
21:37 14.2 14.1 99 1011.3 6.9 WNW 9.8 0.0 10.5
21:38 14.2 14.1 99 1011.3 5.4 WSW 9.8 0.0 10.5
21:39 14.1 14.0 99 1011.3 6.0 W 9.8 0.0 10.5
21:40 14.1 14.0 99 1011.2 9.2 W 9.8 0.0 10.5
21:41 14.1 14.0 99 1011.2 7.6 S 9.8 0.0 10.5
21:42 14.1 14.0 99 1011.4 8.3 SW 9.8 0.0 10.5
21:43 14.1 14.0 99 1011.4 7.6 S 9.8 0.0 10.5
21:44 14.1 14.0 99 1011.3 5.4 SW 9.8 0.0 10.5
21:45 14.1 14.0 99 1011.3 6.9 SW 9.8 0.0 10.5
21:46 14.0 13.9 99 1011.1 6.9 S 9.2 0.0 10.5
21:47 14.1 14.0 99 1011.2 6.9 WNW 9.2 0.0 10.5
21:48 14.0 13.9 99 1011.3 8.3 WSW 9.2 0.0 10.5
21:49 14.0 13.9 99 1011.4 7.6 SW 9.2 0.0 10.5
21:50 14.0 13.9 99 1011.3 8.3 SW 8.3 0.0 10.5
21:51 14.0 13.9 99 1011.3 9.2 SW 9.2 0.0 10.5
21:52 14.0 13.9 99 1011.4 6.9 SW 10.7 0.0 10.5
21:53 14.0 13.9 99 1011.4 9.8 SW 10.7 0.0 10.5
21:54 14.0 13.9 99 1011.5 7.6 SW 10.7 0.0 10.5
21:55 14.0 13.9 99 1011.5 9.8 SW 10.7 0.0 10.5
21:56 13.9 13.8 99 1011.3 7.6 W 10.7 0.0 10.5
21:57 13.9 13.8 99 1011.4 11.4 SW 11.4 0.0 10.5
21:58 13.9 13.8 99 1011.5 6.9 W 11.4 0.0 10.5
21:59 13.8 13.7 99 1011.3 6.9 WNW 11.4 0.0 10.5
22:00 13.8 13.7 99 1011.4 8.3 SW 11.4 0.0 10.5
22:01 13.8 13.7 99 1011.5 8.3 SW 11.4 0.0 10.5
22:02 13.8 13.7 99 1011.4 6.9 S 11.4 0.0 10.5
22:03 13.7 13.6 99 1011.3 8.3 SW 11.4 0.0 10.5
22:04 13.7 13.6 99 1011.3 4.5 SW 11.4 0.0 10.5
22:05 13.7 13.6 99 1011.5 4.5 WSW 11.4 0.0 10.5
22:06 13.7 13.6 99 1011.4 6.0 W 11.4 0.0 10.5
22:07 13.6 13.5 99 1011.5 7.6 SW 11.4 0.0 10.5
22:08 13.6 13.5 99 1011.5 8.3 W 9.2 0.0 10.5
22:09 13.6 13.5 99 1011.5 8.3 W 9.2 0.0 10.5
22:10 13.6 13.5 99 1011.6 8.3 WNW 9.2 0.0 10.5
22:11 13.5 13.4 99 1011.6 8.3 NW 9.2 0.0 10.5
22:12 13.5 13.4 99 1011.7 6.9 W 9.2 0.0 10.5
22:13 13.5 13.4 99 1011.7 6.0 W 9.2 0.0 10.5
22:14 13.5 13.4 99 1011.6 4.5 SW 9.2 0.0 10.5
22:15 13.4 13.3 99 1011.7 6.9 W 8.3 0.0 10.5
22:16 13.4 13.3 99 1011.8 7.6 SW 8.3 0.0 10.5
22:17 13.4 13.3 99 1011.8 8.3 W 8.3 0.0 10.5
22:19 13.4 13.3 99 1011.8 6.9 WSW 8.3 0.0 10.5
22:20 13.4 13.3 99 1011.9 6.0 W 8.3 0.0 10.5
22:21 13.4 13.3 99 1012.0 5.4 SW 8.3 0.0 10.5
22:22 13.4 13.3 99 1011.9 4.5 SW 8.3 0.0 10.5
22:23 13.4 13.3 99 1011.9 7.6 WSW 8.3 0.0 10.5
22:24 13.4 13.3 99 1011.9 5.4 W 8.3 0.0 10.5
22:25 13.4 13.3 99 1011.9 6.9 SW 8.3 0.0 10.5
22:27 13.4 13.3 99 1011.9 7.6 W 7.6 0.0 10.5
22:28 13.4 13.3 99 1011.9 6.9 SW 9.2 0.0 10.5
22:29 13.4 13.3 99 1011.8 10.7 SW 10.7 0.0 10.5
22:30 13.4 13.3 99 1012.0 9.8 SW 10.7 0.0 10.5
22:31 13.4 13.3 99 1011.9 6.9 SW 10.7 0.0 10.5
22:32 13.4 13.3 99 1011.9 7.6 SW 10.7 0.0 10.5
22:33 13.4 13.3 99 1012.1 6.9 SW 10.7 0.0 10.5
22:34 13.4 13.3 99 1012.1 7.6 SW 10.7 0.0 10.5
22:35 13.3 13.2 99 1011.8 6.0 W 10.7 0.0 10.5
22:36 13.3 13.2 99 1012.0 8.3 SW 10.7 0.0 10.5
22:37 13.3 13.2 99 1012.0 6.0 SW 10.7 0.0 10.5
22:38 13.3 13.2 99 1012.0 7.6 S 10.7 0.0 10.5
22:39 13.4 13.3 99 1012.1 7.6 SW 10.7 0.0 10.5
22:40 13.4 13.3 99 1012.0 10.7 W 10.7 0.0 10.5
22:41 13.4 13.3 99 1012.1 5.4 W 10.7 0.0 10.5
22:42 13.4 13.3 99 1012.1 3.8 SW 10.7 0.0 10.5
22:43 13.4 13.3 99 1012.2 3.1 SW 10.7 0.0 10.5
22:44 13.4 13.3 99 1012.2 6.9 N 10.7 0.0 10.5
22:45 13.4 13.3 99 1012.1 5.4 SW 10.7 0.0 10.5
22:46 13.4 13.3 99 1012.1 5.4 SW 10.7 0.0 10.5
22:47 13.4 13.3 99 1012.2 10.7 NW 10.7 0.0 10.5
22:48 13.4 13.3 99 1012.1 8.3 NW 10.7 0.0 10.5
22:49 13.4 13.3 99 1012.3 7.6 SW 10.7 0.0 10.5
22:50 13.4 13.3 99 1012.3 5.4 NW 10.7 0.0 10.5
22:51 13.4 13.3 99 1012.1 5.4 NW 10.7 0.0 10.5
22:52 13.4 13.3 99 1012.2 7.6 NE 10.7 0.0 10.5
22:53 13.4 13.3 99 1012.3 6.9 NW 10.7 0.0 10.5
22:54 13.4 13.3 99 1012.3 7.6 NW 10.7 0.0 10.5
22:55 13.4 13.3 99 1012.3 9.2 W 10.7 0.0 10.5
22:56 13.4 13.3 99 1012.3 6.9 W 10.7 0.0 10.5
22:58 13.3 13.2 99 1012.3 5.4 SW 9.2 0.0 10.5
22:59 13.3 13.2 99 1012.2 4.5 W 9.2 0.0 10.5
23:00 13.3 13.2 99 1012.3 7.6 S 9.2 0.0 10.5
23:01 13.3 13.2 99 1012.2 7.6 S 9.2 0.0 10.5
23:02 13.3 13.2 99 1012.2 7.6 S 9.2 0.0 10.5
23:03 13.3 13.2 99 1012.2 5.4 NW 9.2 0.0 10.5
23:04 13.3 13.2 99 1012.2 5.4 NW 9.2 0.0 10.5
23:05 13.3 13.2 99 1012.3 5.4 SW 9.2 0.0 10.5
23:06 13.3 13.2 99 1012.2 3.8 W 7.6 0.0 10.5
23:07 13.2 13.1 99 1012.3 4.5 W 7.6 0.0 10.5
23:08 13.2 13.1 99 1012.2 5.4 W 7.6 0.0 10.5
23:10 13.2 13.1 99 1012.3 3.8 W 7.6 0.0 10.5
23:11 13.2 13.1 99 1012.3 3.1 SW 7.6 0.0 10.5
23:12 13.2 13.1 99 1012.4 3.8 W 5.4 0.0 10.5
23:13 13.2 13.1 99 1012.4 4.5 WSW 5.4 0.0 10.5
23:14 13.2 13.1 99 1012.4 5.4 W 5.4 0.0 10.5
23:15 13.2 13.1 99 1012.4 4.5 SW 5.4 0.0 10.5
23:17 13.2 13.1 99 1012.4 3.1 SW 5.4 0.0 10.5
23:18 13.1 13.0 99 1012.4 6.9 NW 6.9 0.0 10.5
23:19 13.1 13.0 99 1012.4 4.5 W 6.9 0.0 10.5
23:20 13.1 13.0 99 1012.4 5.4 WSW 6.9 0.0 10.5
23:21 13.1 13.0 99 1012.5 7.6 SW 7.6 0.0 10.5
23:22 13.1 13.0 99 1012.5 6.9 W 7.6 0.0 10.5
23:24 13.1 13.0 99 1012.5 5.4 SW 7.6 0.0 10.5
23:25 13.1 13.0 99 1012.6 3.8 W 7.6 0.0 10.5
23:26 13.1 13.0 99 1012.8 4.5 W 7.6 0.0 10.5
23:27 13.0 12.9 99 1012.7 5.4 SW 7.6 0.0 10.5
23:28 13.0 12.9 99 1012.6 4.5 SW 7.6 0.0 10.5
23:29 13.1 13.0 99 1012.7 3.8 W 7.6 0.0 10.5
23:30 13.1 13.0 99 1012.6 3.1 WSW 7.6 0.0 10.5
23:31 13.0 12.9 99 1012.6 5.4 W 6.9 0.0 10.5
23:32 13.0 12.9 99 1012.6 6.9 NW 6.9 0.0 10.5
23:33 13.0 12.9 99 1012.7 6.9 NW 6.9 0.0 10.5
23:34 13.0 12.9 99 1012.6 6.9 SW 6.9 0.0 10.5
23:35 13.0 12.9 99 1012.7 3.8 W 6.9 0.0 10.5
23:36 13.0 12.9 99 1012.5 7.6 NW 7.6 0.0 10.5
23:37 13.0 12.9 99 1012.5 6.9 NW 7.6 0.0 10.5
23:38 13.0 12.9 99 1012.7 6.0 W 7.6 0.0 10.5
23:39 13.0 12.9 99 1012.6 6.0 NW 7.6 0.0 10.5
23:40 13.0 12.9 99 1012.5 5.4 W 7.6 0.0 10.5
23:41 12.9 12.8 99 1012.4 4.5 WSW 7.6 0.0 10.5
23:42 12.9 12.8 99 1012.6 5.4 NW 7.6 0.0 10.5
23:43 12.9 12.8 99 1012.5 3.1 WNW 7.6 0.0 10.5
23:44 12.9 12.8 99 1012.5 7.6 W 7.6 0.0 10.5
23:45 12.9 12.8 99 1012.5 9.2 NW 9.2 0.0 10.5
23:46 12.9 12.8 99 1012.4 6.0 NW 9.2 0.0 10.5
23:47 12.9 12.8 99 1012.5 7.6 NE 9.2 0.0 10.5
23:48 12.9 12.8 99 1012.4 7.6 NW 9.2 0.0 10.5
23:49 12.9 12.8 99 1012.3 7.6 W 9.2 0.0 10.5
23:50 12.8 12.7 99 1012.5 9.2 W 9.2 0.0 10.5
23:51 12.8 12.7 99 1012.4 6.0 W 9.2 0.0 10.5
23:52 12.8 12.7 99 1012.3 6.9 W 9.2 0.0 10.5
23:53 12.8 12.7 99 1012.3 6.9 N 9.2 0.0 10.5
23:54 12.8 12.7 99 1012.5 8.3 NW 9.2 0.0 10.5
23:55 12.8 12.7 99 1012.6 7.6 NW 9.2 0.0 10.5
23:56 12.8 12.7 99 1012.4 6.9 NW 9.2 0.0 10.5
23:57 12.8 12.7 99 1012.5 7.6 NW 9.2 0.0 10.5
23:58 12.8 12.7 99 1012.6 7.6 W 9.2 0.0 10.5
23:59 12.8 12.7 99 1012.4 6.0 N 9.2 0.0 10.5

UK - WEATHER STATION TOPSITES - UK World Weather Websites

This is a private weather station, never base important decisions or events on data from this weather station. Although every effort has been made to make the data as accurate as possible it does not meet MetOffice standards. It is proved as a guide of local weather conditions. We accept no liability for any loss which may arise from use of the data.

Copyright © Carnkie Weather 2009 - 2018.